Time,TemperatureF,DewpointF,PressureIn,WindDirection,WindDirectionDegrees,WindSpeedMPH,WindSpeedGustMPH,Humidity,HourlyPrecipIn,Conditions,Clouds,dailyrainin,SoftwareType,DateUTC
2013-05-19 00:01:00,76.8,69.8,30.07,SE,127,1.0,1.0,79,0.00,,,0.02,Wunderground v.1.15,2013-05-19 04:01:00,
2013-05-19 00:02:00,76.9,69.9,30.07,SE,127,1.0,1.0,79,0.00,,,0.02,Wunderground v.1.15,2013-05-19 04:02:00,
2013-05-19 00:03:00,76.8,69.8,30.07,SE,131,1.0,2.0,79,0.00,,,0.02,Wunderground v.1.15,2013-05-19 04:03:00,
2013-05-19 00:06:00,76.8,69.8,30.07,ESE,117,0.0,2.0,79,0.00,,,0.02,Wunderground v.1.15,2013-05-19 04:06:00,
2013-05-19 00:07:00,76.8,69.8,30.07,ESE,115,0.0,2.0,79,0.00,,,0.00,Wunderground v.1.15,2013-05-19 04:07:00,
2013-05-19 00:09:00,76.8,69.8,30.07,ENE,76,0.0,2.0,79,0.00,,,0.00,Wunderground v.1.15,2013-05-19 04:09:00,
2013-05-19 00:12:00,76.8,69.8,30.07,ENE,78,0.0,0.0,79,0.00,,,0.00,Wunderground v.1.15,2013-05-19 04:12:00,
2013-05-19 00:13:00,76.7,69.7,30.07,ENE,78,0.0,0.0,79,0.00,,,0.00,Wunderground v.1.15,2013-05-19 04:13:00,
2013-05-19 00:14:00,76.7,69.7,30.07,ENE,78,0.0,0.0,79,0.00,,,0.00,Wunderground v.1.15,2013-05-19 04:14:00,
2013-05-19 00:15:00,76.6,69.6,30.07,East,101,0.0,1.0,79,0.00,,,0.00,Wunderground v.1.15,2013-05-19 04:15:00,
2013-05-19 00:16:00,76.6,69.6,30.07,ESE,117,0.0,1.0,79,0.00,,,0.00,Wunderground v.1.15,2013-05-19 04:16:00,
2013-05-19 00:20:00,76.6,70.0,30.07,East,99,0.0,0.0,80,0.00,,,0.00,Wunderground v.1.15,2013-05-19 04:20:00,
2013-05-19 00:23:00,76.5,69.9,30.07,SE,134,0.0,0.0,80,0.00,,,0.00,Wunderground v.1.15,2013-05-19 04:23:00,
2013-05-19 00:24:00,76.5,69.9,30.07,ESE,105,0.0,1.0,80,0.00,,,0.00,Wunderground v.1.15,2013-05-19 04:24:00,
2013-05-19 00:26:00,76.5,69.9,30.07,ESE,122,0.0,1.0,80,0.00,,,0.00,Wunderground v.1.15,2013-05-19 04:26:00,
2013-05-19 00:29:00,76.5,69.9,30.07,SE,131,0.0,1.0,80,0.00,,,0.00,Wunderground v.1.15,2013-05-19 04:29:00,
2013-05-19 00:31:00,76.4,69.8,30.07,ESE,121,0.0,4.0,80,0.00,,,0.00,Wunderground v.1.15,2013-05-19 04:31:00,
2013-05-19 00:32:00,76.4,69.8,30.07,ESE,121,0.0,4.0,80,0.00,,,0.00,Wunderground v.1.15,2013-05-19 04:32:00,
2013-05-19 00:37:00,76.4,69.8,30.07,SE,136,0.0,4.0,80,0.00,,,0.00,Wunderground v.1.15,2013-05-19 04:37:00,
2013-05-19 00:39:00,76.3,69.7,30.07,SE,133,0.0,4.0,80,0.00,,,0.00,Wunderground v.1.15,2013-05-19 04:39:00,
2013-05-19 00:40:00,76.3,69.7,30.07,ESE,114,0.0,4.0,80,0.00,,,0.00,Wunderground v.1.15,2013-05-19 04:40:00,
2013-05-19 00:42:00,76.3,70.0,30.07,East,79,0.0,4.0,81,0.00,,,0.00,Wunderground v.1.15,2013-05-19 04:42:00,
2013-05-19 00:44:00,76.3,70.0,30.07,ESE,120,0.0,4.0,81,0.00,,,0.00,Wunderground v.1.15,2013-05-19 04:44:00,
2013-05-19 00:47:00,76.3,70.0,30.07,ESE,118,0.0,4.0,81,0.00,,,0.00,Wunderground v.1.15,2013-05-19 04:47:00,
2013-05-19 00:48:00,76.3,70.0,30.07,ESE,114,0.0,4.0,81,0.00,,,0.00,Wunderground v.1.15,2013-05-19 04:48:00,
2013-05-19 00:50:00,76.3,70.0,30.07,East,96,0.0,4.0,81,0.00,,,0.00,Wunderground v.1.15,2013-05-19 04:50:00,
2013-05-19 00:53:00,76.2,69.9,30.07,ESE,107,0.0,4.0,81,0.00,,,0.00,Wunderground v.1.15,2013-05-19 04:53:00,
2013-05-19 00:55:00,76.2,70.3,30.06,SE,133,0.0,4.0,82,0.00,,,0.00,Wunderground v.1.15,2013-05-19 04:55:00,
2013-05-19 00:56:00,76.2,70.3,30.06,SE,130,0.0,4.0,82,0.00,,,0.00,Wunderground v.1.15,2013-05-19 04:56:00,
2013-05-19 00:59:00,76.2,69.9,30.07,East,87,0.0,4.0,81,0.00,,,0.00,Wunderground v.1.15,2013-05-19 04:59:00,
2013-05-19 01:00:00,76.2,69.9,30.07,ESE,117,0.0,0.0,81,0.00,,,0.00,Wunderground v.1.15,2013-05-19 05:00:00,
2013-05-19 01:01:00,76.2,69.9,30.06,ESE,117,0.0,0.0,81,0.00,,,0.00,Wunderground v.1.15,2013-05-19 05:01:00,
2013-05-19 01:02:00,76.1,69.8,30.06,ESE,117,0.0,0.0,81,0.00,,,0.00,Wunderground v.1.15,2013-05-19 05:02:00,
2013-05-19 01:04:00,76.1,69.8,30.06,ESE,114,0.0,0.0,81,0.00,,,0.00,Wunderground v.1.15,2013-05-19 05:04:00,
2013-05-19 01:06:00,76.1,70.2,30.06,SE,124,0.0,0.0,82,0.00,,,0.00,Wunderground v.1.15,2013-05-19 05:06:00,
2013-05-19 01:09:00,76.1,69.8,30.06,SE,130,0.0,2.0,81,0.00,,,0.00,Wunderground v.1.15,2013-05-19 05:09:00,
2013-05-19 01:12:00,76.1,69.8,30.06,SE,139,1.0,1.0,81,0.00,,,0.00,Wunderground v.1.15,2013-05-19 05:12:00,
2013-05-19 01:13:00,76.1,69.8,30.06,SE,128,1.0,1.0,81,0.00,,,0.00,Wunderground v.1.15,2013-05-19 05:13:00,
2013-05-19 01:19:00,76.1,69.8,30.06,SE,139,1.0,2.0,81,0.00,,,0.00,Wunderground v.1.15,2013-05-19 05:19:00,
2013-05-19 01:20:00,76.1,69.8,30.06,SE,139,0.0,0.0,81,0.00,,,0.00,Wunderground v.1.15,2013-05-19 05:20:00,
2013-05-19 01:22:00,76.1,69.8,30.06,SE,127,0.0,0.0,81,0.00,,,0.00,Wunderground v.1.15,2013-05-19 05:22:00,
2013-05-19 01:23:00,76.1,69.8,30.06,SE,127,0.0,0.0,81,0.00,,,0.00,Wunderground v.1.15,2013-05-19 05:23:00,
2013-05-19 01:26:00,76.0,69.4,30.05,ESE,108,0.0,1.0,80,0.00,,,0.00,Wunderground v.1.15,2013-05-19 05:26:00,
2013-05-19 01:28:00,75.9,69.6,30.05,ESE,106,0.0,1.0,81,0.00,,,0.00,Wunderground v.1.15,2013-05-19 05:28:00,
2013-05-19 01:31:00,75.9,69.6,30.05,East,100,0.0,2.0,81,0.00,,,0.00,Wunderground v.1.15,2013-05-19 05:31:00,
2013-05-19 01:32:00,75.9,69.6,30.05,East,96,0.0,2.0,81,0.00,,,0.00,Wunderground v.1.15,2013-05-19 05:32:00,
2013-05-19 01:35:00,75.9,69.6,30.05,East,96,0.0,2.0,81,0.00,,,0.00,Wunderground v.1.15,2013-05-19 05:35:00,
2013-05-19 01:36:00,75.9,69.6,30.05,SE,131,0.0,2.0,81,0.00,,,0.00,Wunderground v.1.15,2013-05-19 05:36:00,
2013-05-19 01:37:00,75.9,69.6,30.05,SE,137,0.0,2.0,81,0.00,,,0.00,Wunderground v.1.15,2013-05-19 05:37:00,
2013-05-19 01:41:00,75.8,69.6,30.05,SE,129,0.0,2.0,81,0.00,,,0.00,Wunderground v.1.15,2013-05-19 05:41:00,
2013-05-19 01:42:00,75.8,69.6,30.05,SE,129,0.0,2.0,81,0.00,,,0.00,Wunderground v.1.15,2013-05-19 05:42:00,
2013-05-19 01:45:00,75.7,69.5,30.05,SE,129,0.0,2.0,81,0.00,,,0.00,Wunderground v.1.15,2013-05-19 05:45:00,
2013-05-19 01:47:00,75.6,69.4,30.05,SE,129,0.0,2.0,81,0.00,,,0.00,Wunderground v.1.15,2013-05-19 05:47:00,
2013-05-19 01:50:00,75.5,69.6,30.05,SE,129,0.0,2.0,82,0.00,,,0.00,Wunderground v.1.15,2013-05-19 05:50:00,
2013-05-19 01:52:00,75.5,69.6,30.04,SE,129,0.0,2.0,82,0.00,,,0.00,Wunderground v.1.15,2013-05-19 05:52:00,
2013-05-19 01:53:00,75.4,69.5,30.04,SE,129,0.0,2.0,82,0.00,,,0.00,Wunderground v.1.15,2013-05-19 05:53:00,
2013-05-19 01:54:00,75.4,69.5,30.04,SE,129,0.0,2.0,82,0.00,,,0.00,Wunderground v.1.15,2013-05-19 05:54:00,
2013-05-19 01:55:00,75.4,69.5,30.04,SE,129,0.0,2.0,82,0.00,,,0.00,Wunderground v.1.15,2013-05-19 05:55:00,
2013-05-19 02:00:00,75.2,69.7,30.04,East,91,0.0,0.0,83,0.00,,,0.00,Wunderground v.1.15,2013-05-19 06:00:00,
2013-05-19 02:01:00,75.2,69.7,30.04,East,91,0.0,0.0,83,0.00,,,0.00,Wunderground v.1.15,2013-05-19 06:01:00,
2013-05-19 02:02:00,75.2,69.7,30.04,SE,127,0.0,0.0,83,0.00,,,0.00,Wunderground v.1.15,2013-05-19 06:02:00,
2013-05-19 02:05:00,75.2,69.7,30.04,SE,127,0.0,0.0,83,0.00,,,0.00,Wunderground v.1.15,2013-05-19 06:05:00,
2013-05-19 02:06:00,75.2,69.7,30.04,SE,128,0.0,0.0,83,0.00,,,0.00,Wunderground v.1.15,2013-05-19 06:06:00,
2013-05-19 02:07:00,75.2,69.7,30.04,SE,129,0.0,0.0,83,0.00,,,0.00,Wunderground v.1.15,2013-05-19 06:07:00,
2013-05-19 02:09:00,75.2,69.7,30.03,ESE,121,0.0,0.0,83,0.00,,,0.00,Wunderground v.1.15,2013-05-19 06:09:00,
2013-05-19 02:12:00,75.2,69.7,30.03,SE,144,0.0,0.0,83,0.00,,,0.00,Wunderground v.1.15,2013-05-19 06:12:00,
2013-05-19 02:16:00,75.1,69.6,30.03,SE,126,0.0,1.0,83,0.00,,,0.00,Wunderground v.1.15,2013-05-19 06:16:00,
2013-05-19 02:18:00,75.1,69.6,30.03,SE,126,0.0,1.0,83,0.00,,,0.00,Wunderground v.1.15,2013-05-19 06:18:00,
2013-05-19 02:20:00,75.1,69.6,30.03,SE,126,0.0,0.0,83,0.00,,,0.00,Wunderground v.1.15,2013-05-19 06:20:00,
2013-05-19 02:21:00,75.0,69.5,30.03,SE,126,0.0,0.0,83,0.00,,,0.00,Wunderground v.1.15,2013-05-19 06:21:00,
2013-05-19 02:24:00,74.9,69.7,30.03,SE,126,0.0,0.0,84,0.00,,,0.00,Wunderground v.1.15,2013-05-19 06:24:00,
2013-05-19 02:25:00,74.8,69.6,30.03,SE,126,0.0,0.0,84,0.00,,,0.00,Wunderground v.1.15,2013-05-19 06:25:00,
2013-05-19 02:27:00,74.8,70.0,30.04,SE,126,0.0,0.0,85,0.00,,,0.00,Wunderground v.1.15,2013-05-19 06:27:00,
2013-05-19 02:28:00,74.7,69.9,30.04,SE,126,0.0,0.0,85,0.00,,,0.00,Wunderground v.1.15,2013-05-19 06:28:00,
2013-05-19 02:32:00,74.4,69.6,30.03,SE,127,0.0,3.0,85,0.00,,,0.00,Wunderground v.1.15,2013-05-19 06:32:00,
2013-05-19 02:34:00,74.3,69.5,30.04,SE,126,0.0,3.0,85,0.00,,,0.00,Wunderground v.1.15,2013-05-19 06:34:00,
2013-05-19 02:35:00,74.2,69.7,30.03,SE,126,0.0,3.0,86,0.00,,,0.00,Wunderground v.1.15,2013-05-19 06:35:00,
2013-05-19 02:39:00,74.0,69.5,30.03,SE,126,0.0,3.0,86,0.00,,,0.00,Wunderground v.1.15,2013-05-19 06:39:00,
2013-05-19 02:40:00,73.9,69.4,30.03,SE,126,0.0,3.0,86,0.00,,,0.00,Wunderground v.1.15,2013-05-19 06:40:00,
2013-05-19 02:42:00,73.8,69.3,30.03,SE,126,0.0,3.0,86,0.00,,,0.00,Wunderground v.1.15,2013-05-19 06:42:00,
2013-05-19 02:44:00,73.6,69.2,30.03,SE,126,0.0,3.0,86,0.00,,,0.00,Wunderground v.1.15,2013-05-19 06:44:00,
2013-05-19 02:46:00,73.5,69.4,30.03,SE,126,0.0,3.0,87,0.00,,,0.00,Wunderground v.1.15,2013-05-19 06:46:00,
2013-05-19 02:49:00,73.3,69.2,30.03,SE,126,0.0,3.0,87,0.00,,,0.00,Wunderground v.1.15,2013-05-19 06:49:00,
2013-05-19 02:50:00,73.2,69.1,30.03,SE,126,0.0,3.0,87,0.00,,,0.00,Wunderground v.1.15,2013-05-19 06:50:00,
2013-05-19 02:51:00,73.2,69.4,30.03,SE,126,0.0,3.0,88,0.00,,,0.00,Wunderground v.1.15,2013-05-19 06:51:00,
2013-05-19 02:53:00,73.1,69.3,30.03,SE,126,0.0,3.0,88,0.00,,,0.00,Wunderground v.1.15,2013-05-19 06:53:00,
2013-05-19 02:56:00,72.9,69.1,30.03,SE,127,0.0,3.0,88,0.00,,,0.00,Wunderground v.1.15,2013-05-19 06:56:00,
2013-05-19 02:57:00,72.9,69.1,30.03,SE,127,0.0,3.0,88,0.00,,,0.00,Wunderground v.1.15,2013-05-19 06:57:00,
2013-05-19 02:58:00,72.8,69.0,30.03,SE,126,0.0,3.0,88,0.00,,,0.00,Wunderground v.1.15,2013-05-19 06:58:00,
2013-05-19 03:02:00,72.7,69.3,30.03,SE,126,0.0,0.0,89,0.00,,,0.00,Wunderground v.1.15,2013-05-19 07:02:00,
2013-05-19 03:03:00,72.7,69.3,30.03,SE,126,0.0,0.0,89,0.00,,,0.00,Wunderground v.1.15,2013-05-19 07:03:00,
2013-05-19 03:04:00,72.7,69.3,30.03,SE,126,0.0,0.0,89,0.00,,,0.00,Wunderground v.1.15,2013-05-19 07:04:00,
2013-05-19 03:05:00,72.6,69.2,30.03,SE,126,0.0,0.0,89,0.00,,,0.00,Wunderground v.1.15,2013-05-19 07:05:00,
2013-05-19 03:06:00,72.6,69.2,30.03,SE,126,0.0,0.0,89,0.00,,,0.00,Wunderground v.1.15,2013-05-19 07:06:00,
2013-05-19 03:10:00,72.6,69.2,30.02,SE,126,0.0,0.0,89,0.00,,,0.00,Wunderground v.1.15,2013-05-19 07:10:00,
2013-05-19 03:11:00,72.5,69.1,30.03,SE,126,0.0,0.0,89,0.00,,,0.00,Wunderground v.1.15,2013-05-19 07:11:00,
2013-05-19 03:12:00,72.5,69.1,30.02,SE,126,0.0,0.0,89,0.00,,,0.00,Wunderground v.1.15,2013-05-19 07:12:00,
2013-05-19 03:17:00,72.2,69.1,30.02,SE,126,0.0,0.0,90,0.00,,,0.00,Wunderground v.1.15,2013-05-19 07:17:00,
2013-05-19 03:19:00,72.2,69.1,30.02,SE,126,0.0,0.0,90,0.00,,,0.00,Wunderground v.1.15,2013-05-19 07:19:00,
2013-05-19 03:21:00,72.3,69.8,30.02,SE,126,0.0,0.0,92,0.00,,,0.00,Wunderground v.1.15,2013-05-19 07:21:00,
2013-05-19 03:22:00,72.4,69.9,30.02,SE,126,0.0,0.0,92,0.00,,,0.00,Wunderground v.1.15,2013-05-19 07:22:00,
2013-05-19 03:25:00,72.5,69.7,30.02,SE,127,0.0,0.0,91,0.00,,,0.00,Wunderground v.1.15,2013-05-19 07:25:00,
2013-05-19 03:27:00,72.4,69.6,30.02,SE,126,0.0,0.0,91,0.00,,,0.00,Wunderground v.1.15,2013-05-19 07:27:00,
2013-05-19 03:30:00,72.3,69.5,30.02,SE,126,0.0,0.0,91,0.00,,,0.00,Wunderground v.1.15,2013-05-19 07:30:00,
2013-05-19 03:32:00,72.2,69.4,30.02,SE,126,0.0,1.0,91,0.00,,,0.00,Wunderground v.1.15,2013-05-19 07:32:00,
2013-05-19 03:35:00,72.1,69.3,30.02,SE,126,0.0,1.0,91,0.00,,,0.00,Wunderground v.1.15,2013-05-19 07:35:00,
2013-05-19 03:36:00,72.1,69.6,30.02,SE,126,0.0,1.0,92,0.00,,,0.00,Wunderground v.1.15,2013-05-19 07:36:00,
2013-05-19 03:38:00,72.1,69.6,30.02,SE,126,0.0,1.0,92,0.00,,,0.00,Wunderground v.1.15,2013-05-19 07:38:00,
2013-05-19 03:41:00,72.0,69.5,30.02,SE,126,0.0,1.0,92,0.00,,,0.00,Wunderground v.1.15,2013-05-19 07:41:00,
2013-05-19 03:42:00,72.0,69.5,30.02,SE,127,0.0,1.0,92,0.00,,,0.00,Wunderground v.1.15,2013-05-19 07:42:00,
2013-05-19 03:43:00,72.0,69.5,30.02,SE,126,0.0,1.0,92,0.00,,,0.00,Wunderground v.1.15,2013-05-19 07:43:00,
2013-05-19 03:45:00,72.0,69.5,30.02,SE,126,0.0,1.0,92,0.00,,,0.00,Wunderground v.1.15,2013-05-19 07:45:00,
2013-05-19 03:47:00,72.0,69.5,30.02,SE,126,0.0,1.0,92,0.00,,,0.00,Wunderground v.1.15,2013-05-19 07:47:00,
2013-05-19 03:48:00,72.0,69.5,30.02,SE,126,0.0,1.0,92,0.00,,,0.00,Wunderground v.1.15,2013-05-19 07:48:00,
2013-05-19 03:50:00,72.0,69.9,30.02,SE,126,0.0,1.0,93,0.00,,,0.00,Wunderground v.1.15,2013-05-19 07:50:00,
2013-05-19 03:51:00,72.0,69.9,30.02,SE,126,0.0,1.0,93,0.00,,,0.00,Wunderground v.1.15,2013-05-19 07:51:00,
2013-05-19 03:57:00,71.7,69.3,30.02,SE,126,0.0,1.0,92,0.00,,,0.00,Wunderground v.1.15,2013-05-19 07:57:00,
2013-05-19 03:59:00,71.8,69.3,30.02,SE,126,0.0,1.0,92,0.00,,,0.00,Wunderground v.1.15,2013-05-19 07:59:00,
2013-05-19 04:00:00,71.8,69.3,30.02,SE,126,0.0,0.0,92,0.00,,,0.00,Wunderground v.1.15,2013-05-19 08:00:00,
2013-05-19 04:01:00,71.8,69.3,30.02,SE,127,0.0,0.0,92,0.00,,,0.00,Wunderground v.1.15,2013-05-19 08:01:00,
2013-05-19 04:04:00,71.8,69.3,30.02,SE,126,0.0,0.0,92,0.00,,,0.00,Wunderground v.1.15,2013-05-19 08:04:00,
2013-05-19 04:06:00,71.8,69.3,30.02,SE,126,0.0,0.0,92,0.00,,,0.00,Wunderground v.1.15,2013-05-19 08:06:00,
2013-05-19 04:10:00,71.6,68.8,30.02,SE,126,0.0,0.0,91,0.00,,,0.00,Wunderground v.1.15,2013-05-19 08:10:00,
2013-05-19 04:12:00,71.5,68.7,30.02,SE,126,0.0,0.0,91,0.00,,,0.00,Wunderground v.1.15,2013-05-19 08:12:00,
2013-05-19 04:13:00,71.4,68.6,30.02,SE,126,0.0,0.0,91,0.00,,,0.00,Wunderground v.1.15,2013-05-19 08:13:00,
2013-05-19 04:15:00,71.4,68.6,30.02,SE,126,0.0,0.0,91,0.00,,,0.00,Wunderground v.1.15,2013-05-19 08:15:00,
2013-05-19 04:18:00,71.3,68.9,30.02,SE,127,0.0,0.0,92,0.00,,,0.00,Wunderground v.1.15,2013-05-19 08:18:00,
2013-05-19 04:20:00,71.3,68.9,30.02,SE,127,0.0,0.0,92,0.00,,,0.00,Wunderground v.1.15,2013-05-19 08:20:00,
2013-05-19 04:21:00,71.2,68.8,30.02,SE,126,0.0,0.0,92,0.00,,,0.00,Wunderground v.1.15,2013-05-19 08:21:00,
2013-05-19 04:26:00,71.2,68.8,30.02,SE,127,0.0,0.0,92,0.00,,,0.00,Wunderground v.1.15,2013-05-19 08:26:00,
2013-05-19 04:27:00,71.2,69.1,30.02,SE,127,0.0,0.0,93,0.00,,,0.00,Wunderground v.1.15,2013-05-19 08:27:00,
2013-05-19 04:28:00,71.3,69.2,30.02,SE,126,0.0,0.0,93,0.00,,,0.00,Wunderground v.1.15,2013-05-19 08:28:00,
2013-05-19 04:33:00,71.5,69.4,30.02,SE,127,0.0,0.0,93,0.00,,,0.00,Wunderground v.1.15,2013-05-19 08:33:00,
2013-05-19 04:34:00,71.5,69.4,30.02,SE,127,0.0,0.0,93,0.00,,,0.00,Wunderground v.1.15,2013-05-19 08:34:00,
2013-05-19 04:36:00,71.6,69.5,30.02,SE,126,0.0,0.0,93,0.00,,,0.00,Wunderground v.1.15,2013-05-19 08:36:00,
2013-05-19 04:39:00,71.6,69.2,30.02,SE,126,0.0,0.0,92,0.00,,,0.00,Wunderground v.1.15,2013-05-19 08:39:00,
2013-05-19 04:41:00,71.6,69.5,30.02,SE,126,0.0,0.0,93,0.00,,,0.00,Wunderground v.1.15,2013-05-19 08:41:00,
2013-05-19 04:43:00,71.6,69.5,30.02,SE,126,0.0,0.0,93,0.00,,,0.00,Wunderground v.1.15,2013-05-19 08:43:00,
2013-05-19 04:45:00,71.6,69.5,30.02,SE,126,0.0,0.0,93,0.00,,,0.00,Wunderground v.1.15,2013-05-19 08:45:00,
2013-05-19 04:49:00,71.7,69.6,30.02,SE,126,0.0,0.0,93,0.00,,,0.00,Wunderground v.1.15,2013-05-19 08:49:00,
2013-05-19 04:52:00,71.7,69.3,30.02,SE,126,0.0,0.0,92,0.00,,,0.00,Wunderground v.1.15,2013-05-19 08:52:00,
2013-05-19 04:53:00,71.7,69.3,30.02,SE,126,0.0,0.0,92,0.00,,,0.00,Wunderground v.1.15,2013-05-19 08:53:00,
2013-05-19 04:56:00,71.6,69.5,30.02,SE,126,0.0,0.0,93,0.00,,,0.00,Wunderground v.1.15,2013-05-19 08:56:00,
2013-05-19 04:57:00,71.6,69.5,30.02,SE,126,0.0,0.0,93,0.00,,,0.00,Wunderground v.1.15,2013-05-19 08:57:00,
2013-05-19 05:02:00,71.8,70.0,30.03,SE,126,0.0,0.0,94,0.00,,,0.00,Wunderground v.1.15,2013-05-19 09:02:00,
2013-05-19 05:04:00,71.7,69.9,30.03,SE,126,0.0,0.0,94,0.00,,,0.00,Wunderground v.1.15,2013-05-19 09:04:00,
2013-05-19 05:05:00,71.7,69.9,30.03,SE,126,0.0,0.0,94,0.00,,,0.00,Wunderground v.1.15,2013-05-19 09:05:00,
2013-05-19 05:07:00,71.6,69.5,30.03,SE,126,0.0,0.0,93,0.00,,,0.00,Wunderground v.1.15,2013-05-19 09:07:00,
2013-05-19 05:08:00,71.6,69.5,30.03,SE,126,0.0,0.0,93,0.00,,,0.00,Wunderground v.1.15,2013-05-19 09:08:00,
2013-05-19 05:12:00,71.5,69.7,30.03,SE,126,0.0,0.0,94,0.00,,,0.00,Wunderground v.1.15,2013-05-19 09:12:00,
2013-05-19 05:13:00,71.4,69.6,30.03,SE,126,0.0,0.0,94,0.00,,,0.00,Wunderground v.1.15,2013-05-19 09:13:00,
2013-05-19 05:15:00,71.4,69.6,30.03,SE,126,0.0,0.0,94,0.00,,,0.00,Wunderground v.1.15,2013-05-19 09:15:00,
2013-05-19 05:17:00,71.4,69.6,30.03,SE,126,0.0,0.0,94,0.00,,,0.00,Wunderground v.1.15,2013-05-19 09:17:00,
2013-05-19 05:20:00,71.4,69.6,30.03,SE,126,0.0,0.0,94,0.00,,,0.00,Wunderground v.1.15,2013-05-19 09:20:00,
2013-05-19 05:22:00,71.5,69.7,30.03,SE,126,0.0,0.0,94,0.00,,,0.00,Wunderground v.1.15,2013-05-19 09:22:00,
2013-05-19 05:23:00,71.5,69.7,30.03,SE,126,0.0,0.0,94,0.00,,,0.00,Wunderground v.1.15,2013-05-19 09:23:00,
2013-05-19 05:24:00,71.5,69.7,30.04,SE,126,0.0,0.0,94,0.00,,,0.00,Wunderground v.1.15,2013-05-19 09:24:00,
2013-05-19 05:29:00,71.3,69.5,30.03,SE,126,0.0,0.0,94,0.00,,,0.00,Wunderground v.1.15,2013-05-19 09:29:00,
2013-05-19 05:30:00,71.3,69.5,30.03,SE,126,0.0,0.0,94,0.00,,,0.00,Wunderground v.1.15,2013-05-19 09:30:00,
2013-05-19 05:33:00,71.2,69.4,30.03,SE,126,0.0,0.0,94,0.00,,,0.00,Wunderground v.1.15,2013-05-19 09:33:00,
2013-05-19 05:34:00,71.2,69.4,30.03,SE,126,0.0,0.0,94,0.00,,,0.00,Wunderground v.1.15,2013-05-19 09:34:00,
2013-05-19 05:35:00,71.2,69.4,30.03,SE,126,0.0,0.0,94,0.00,,,0.00,Wunderground v.1.15,2013-05-19 09:35:00,
2013-05-19 05:36:00,71.2,69.4,30.03,SE,126,0.0,0.0,94,0.00,,,0.00,Wunderground v.1.15,2013-05-19 09:36:00,
2013-05-19 05:39:00,71.2,69.4,30.03,SE,127,0.0,0.0,94,0.00,,,0.00,Wunderground v.1.15,2013-05-19 09:39:00,
2013-05-19 05:40:00,71.2,69.4,30.03,SE,126,0.0,0.0,94,0.00,,,0.00,Wunderground v.1.15,2013-05-19 09:40:00,
2013-05-19 05:42:00,71.3,69.5,30.03,SE,126,0.0,0.0,94,0.00,,,0.00,Wunderground v.1.15,2013-05-19 09:42:00,
2013-05-19 05:43:00,71.3,69.5,30.03,SE,127,0.0,0.0,94,0.00,,,0.00,Wunderground v.1.15,2013-05-19 09:43:00,
2013-05-19 05:45:00,71.3,69.5,30.03,SE,126,0.0,0.0,94,0.00,,,0.00,Wunderground v.1.15,2013-05-19 09:45:00,
2013-05-19 05:47:00,71.4,69.6,30.03,SE,126,0.0,0.0,94,0.00,,,0.00,Wunderground v.1.15,2013-05-19 09:47:00,
2013-05-19 05:48:00,71.3,69.5,30.03,SE,126,0.0,0.0,94,0.00,,,0.00,Wunderground v.1.15,2013-05-19 09:48:00,
2013-05-19 05:51:00,71.3,69.5,30.03,SE,126,0.0,0.0,94,0.00,,,0.00,Wunderground v.1.15,2013-05-19 09:51:00,
2013-05-19 05:52:00,71.4,69.6,30.03,SE,126,0.0,0.0,94,0.00,,,0.00,Wunderground v.1.15,2013-05-19 09:52:00,
2013-05-19 05:53:00,71.4,69.6,30.03,SE,126,0.0,0.0,94,0.00,,,0.00,Wunderground v.1.15,2013-05-19 09:53:00,
2013-05-19 05:55:00,71.4,69.6,30.03,SE,127,0.0,0.0,94,0.00,,,0.00,Wunderground v.1.15,2013-05-19 09:55:00,
2013-05-19 05:59:00,71.4,69.3,30.03,SE,126,0.0,0.0,93,0.00,,,0.00,Wunderground v.1.15,2013-05-19 09:59:00,
2013-05-19 06:00:00,71.3,69.2,30.04,SE,127,0.0,0.0,93,0.00,,,0.00,Wunderground v.1.15,2013-05-19 10:00:00,
2013-05-19 06:01:00,71.3,69.2,30.03,SE,126,0.0,0.0,93,0.00,,,0.00,Wunderground v.1.15,2013-05-19 10:01:00,
2013-05-19 06:02:00,71.3,69.2,30.04,SE,126,0.0,0.0,93,0.00,,,0.00,Wunderground v.1.15,2013-05-19 10:02:00,
2013-05-19 06:03:00,71.3,69.2,30.04,SE,126,0.0,0.0,93,0.00,,,0.00,Wunderground v.1.15,2013-05-19 10:03:00,
2013-05-19 06:05:00,71.3,69.5,30.04,SE,126,0.0,0.0,94,0.00,,,0.00,Wunderground v.1.15,2013-05-19 10:05:00,
2013-05-19 06:06:00,71.3,69.5,30.04,SE,126,0.0,0.0,94,0.00,,,0.00,Wunderground v.1.15,2013-05-19 10:06:00,
2013-05-19 06:09:00,71.3,69.5,30.04,SE,126,0.0,0.0,94,0.00,,,0.00,Wunderground v.1.15,2013-05-19 10:09:00,
2013-05-19 06:11:00,71.3,69.5,30.04,SE,126,0.0,0.0,94,0.00,,,0.00,Wunderground v.1.15,2013-05-19 10:11:00,
2013-05-19 06:12:00,71.3,69.5,30.04,SE,126,0.0,0.0,94,0.00,,,0.00,Wunderground v.1.15,2013-05-19 10:12:00,
2013-05-19 06:14:00,71.3,69.5,30.04,SE,126,0.0,0.0,94,0.00,,,0.00,Wunderground v.1.15,2013-05-19 10:14:00,
2013-05-19 06:16:00,71.3,69.5,30.04,SE,127,0.0,0.0,94,0.00,,,0.00,Wunderground v.1.15,2013-05-19 10:16:00,
2013-05-19 06:18:00,71.3,69.5,30.04,SE,126,0.0,0.0,94,0.00,,,0.00,Wunderground v.1.15,2013-05-19 10:18:00,
2013-05-19 06:19:00,71.2,69.4,30.04,SE,126,0.0,0.0,94,0.00,,,0.00,Wunderground v.1.15,2013-05-19 10:19:00,
2013-05-19 06:22:00,71.2,69.4,30.04,SE,126,0.0,0.0,94,0.00,,,0.00,Wunderground v.1.15,2013-05-19 10:22:00,
2013-05-19 06:24:00,71.2,69.4,30.04,SE,126,0.0,0.0,94,0.00,,,0.00,Wunderground v.1.15,2013-05-19 10:24:00,
2013-05-19 06:25:00,71.3,69.5,30.04,SE,126,0.0,0.0,94,0.00,,,0.00,Wunderground v.1.15,2013-05-19 10:25:00,
2013-05-19 06:28:00,71.3,69.2,30.04,SE,127,0.0,0.0,93,0.00,,,0.00,Wunderground v.1.15,2013-05-19 10:28:00,
2013-05-19 06:29:00,71.3,69.2,30.04,SE,126,0.0,0.0,93,0.00,,,0.00,Wunderground v.1.15,2013-05-19 10:29:00,
2013-05-19 06:31:00,71.3,69.2,30.04,SE,126,0.0,1.0,93,0.00,,,0.00,Wunderground v.1.15,2013-05-19 10:31:00,
2013-05-19 06:32:00,71.3,69.2,30.04,SE,127,0.0,1.0,93,0.00,,,0.00,Wunderground v.1.15,2013-05-19 10:32:00,
2013-05-19 06:34:00,71.3,69.2,30.04,SE,127,0.0,1.0,93,0.00,,,0.00,Wunderground v.1.15,2013-05-19 10:34:00,
2013-05-19 06:36:00,71.3,69.2,30.04,SE,126,0.0,1.0,93,0.00,,,0.00,Wunderground v.1.15,2013-05-19 10:36:00,
2013-05-19 06:38:00,71.2,69.1,30.04,SE,126,0.0,1.0,93,0.00,,,0.00,Wunderground v.1.15,2013-05-19 10:38:00,
2013-05-19 06:40:00,71.2,69.1,30.04,SE,126,0.0,1.0,93,0.00,,,0.00,Wunderground v.1.15,2013-05-19 10:40:00,
2013-05-19 06:44:00,71.3,69.5,30.04,SE,126,0.0,1.0,94,0.00,,,0.00,Wunderground v.1.15,2013-05-19 10:44:00,
2013-05-19 06:46:00,71.4,69.3,30.04,SE,126,0.0,1.0,93,0.00,,,0.00,Wunderground v.1.15,2013-05-19 10:46:00,
2013-05-19 06:48:00,71.5,69.4,30.04,SE,126,0.0,1.0,93,0.00,,,0.00,Wunderground v.1.15,2013-05-19 10:48:00,
2013-05-19 06:50:00,71.6,69.5,30.04,SE,126,0.0,1.0,93,0.00,,,0.00,Wunderground v.1.15,2013-05-19 10:50:00,
2013-05-19 06:51:00,71.6,69.5,30.04,SE,127,0.0,1.0,93,0.00,,,0.00,Wunderground v.1.15,2013-05-19 10:51:00,
2013-05-19 06:52:00,71.6,69.5,30.04,SE,126,0.0,1.0,93,0.00,,,0.00,Wunderground v.1.15,2013-05-19 10:52:00,
2013-05-19 06:55:00,71.7,69.3,30.05,SE,126,0.0,1.0,92,0.00,,,0.00,Wunderground v.1.15,2013-05-19 10:55:00,
2013-05-19 06:58:00,72.0,69.5,30.05,SE,126,0.0,1.0,92,0.00,,,0.00,Wunderground v.1.15,2013-05-19 10:58:00,
2013-05-19 06:59:00,72.1,69.6,30.05,SE,126,0.0,1.0,92,0.00,,,0.00,Wunderground v.1.15,2013-05-19 10:59:00,
2013-05-19 07:00:00,72.2,69.7,30.05,SE,127,0.0,0.0,92,0.00,,,0.00,Wunderground v.1.15,2013-05-19 11:00:00,
2013-05-19 07:01:00,72.4,69.6,30.05,SE,126,0.0,0.0,91,0.00,,,0.00,Wunderground v.1.15,2013-05-19 11:01:00,
2013-05-19 07:06:00,73.1,70.0,30.05,SE,126,0.0,0.0,90,0.00,,,0.00,Wunderground v.1.15,2013-05-19 11:06:00,
2013-05-19 07:07:00,73.2,70.1,30.05,SE,126,0.0,0.0,90,0.00,,,0.00,Wunderground v.1.15,2013-05-19 11:07:00,
2013-05-19 07:08:00,73.4,70.3,30.05,SE,126,0.0,0.0,90,0.00,,,0.00,Wunderground v.1.15,2013-05-19 11:08:00,
2013-05-19 07:09:00,73.5,70.1,30.05,SE,126,0.0,0.0,89,0.00,,,0.00,Wunderground v.1.15,2013-05-19 11:09:00,
2013-05-19 07:10:00,73.7,70.3,30.05,SE,126,0.0,0.0,89,0.00,,,0.00,Wunderground v.1.15,2013-05-19 11:10:00,
2013-05-19 07:13:00,74.1,70.3,30.05,SE,126,0.0,0.0,88,0.00,,,0.00,Wunderground v.1.15,2013-05-19 11:13:00,
2013-05-19 07:15:00,74.4,70.3,30.05,SE,126,0.0,0.0,87,0.00,,,0.00,Wunderground v.1.15,2013-05-19 11:15:00,
2013-05-19 07:16:00,74.5,70.4,30.05,SE,126,0.0,0.0,87,0.00,,,0.00,Wunderground v.1.15,2013-05-19 11:16:00,
2013-05-19 07:20:00,75.0,70.5,30.06,SE,126,0.0,0.0,86,0.00,,,0.00,Wunderground v.1.15,2013-05-19 11:20:00,
2013-05-19 07:21:00,75.2,70.7,30.06,SE,126,0.0,0.0,86,0.00,,,0.00,Wunderground v.1.15,2013-05-19 11:21:00,
2013-05-19 07:22:00,75.3,70.8,30.06,SE,126,0.0,0.0,86,0.00,,,0.00,Wunderground v.1.15,2013-05-19 11:22:00,
2013-05-19 07:23:00,75.5,70.7,30.06,SE,126,0.0,0.0,85,0.00,,,0.00,Wunderground v.1.15,2013-05-19 11:23:00,
2013-05-19 07:28:00,76.2,71.0,30.06,SE,126,0.0,0.0,84,0.00,,,0.00,Wunderground v.1.15,2013-05-19 11:28:00,
2013-05-19 07:29:00,76.4,71.2,30.06,SE,126,0.0,0.0,84,0.00,,,0.00,Wunderground v.1.15,2013-05-19 11:29:00,
2013-05-19 07:30:00,76.6,71.0,30.06,SE,126,0.0,0.0,83,0.00,,,0.00,Wunderground v.1.15,2013-05-19 11:30:00,
2013-05-19 07:33:00,77.0,71.1,30.06,ESE,115,0.0,1.0,82,0.00,,,0.00,Wunderground v.1.15,2013-05-19 11:33:00,
2013-05-19 07:35:00,77.2,71.3,30.06,ESE,115,0.0,1.0,82,0.00,,,0.00,Wunderground v.1.15,2013-05-19 11:35:00,
2013-05-19 07:37:00,77.5,71.6,30.06,ESE,115,0.0,1.0,82,0.00,,,0.00,Wunderground v.1.15,2013-05-19 11:37:00,
2013-05-19 07:38:00,77.7,71.4,30.06,ESE,115,0.0,1.0,81,0.00,,,0.00,Wunderground v.1.15,2013-05-19 11:38:00,
2013-05-19 07:41:00,78.1,71.4,30.06,ESE,115,0.0,0.0,80,0.00,,,0.00,Wunderground v.1.15,2013-05-19 11:41:00,
2013-05-19 07:42:00,78.3,71.6,30.06,ESE,115,0.0,0.0,80,0.00,,,0.00,Wunderground v.1.15,2013-05-19 11:42:00,
2013-05-19 07:43:00,78.5,71.4,30.06,ESE,115,0.0,0.0,79,0.00,,,0.00,Wunderground v.1.15,2013-05-19 11:43:00,
2013-05-19 07:47:00,78.8,71.4,30.06,ESE,116,0.0,0.0,78,0.00,,,0.00,Wunderground v.1.15,2013-05-19 11:47:00,
2013-05-19 07:48:00,78.8,71.4,30.06,East,89,0.0,0.0,78,0.00,,,0.00,Wunderground v.1.15,2013-05-19 11:48:00,
2013-05-19 07:50:00,78.8,71.4,30.06,ENE,70,0.0,0.0,78,0.00,,,0.00,Wunderground v.1.15,2013-05-19 11:50:00,
2013-05-19 07:52:00,78.8,71.4,30.06,ESE,108,0.0,1.0,78,0.00,,,0.00,Wunderground v.1.15,2013-05-19 11:52:00,
2013-05-19 07:53:00,78.8,71.4,30.06,East,79,0.0,1.0,78,0.00,,,0.00,Wunderground v.1.15,2013-05-19 11:53:00,
2013-05-19 07:57:00,78.9,71.1,30.06,East,84,1.0,1.0,77,0.00,,,0.00,Wunderground v.1.15,2013-05-19 11:57:00,
2013-05-19 07:59:00,79.0,71.6,30.06,SE,124,1.0,1.0,78,0.00,,,0.00,Wunderground v.1.15,2013-05-19 11:59:00,
2013-05-19 08:00:00,79.1,71.3,30.06,East,98,1.0,1.0,77,0.00,,,0.00,Wunderground v.1.15,2013-05-19 12:00:00,
2013-05-19 08:04:00,79.4,71.6,30.06,SE,133,1.0,1.0,77,0.00,,,0.00,Wunderground v.1.15,2013-05-19 12:04:00,
2013-05-19 08:06:00,79.4,71.2,30.07,ESE,106,1.0,2.0,76,0.00,,,0.00,Wunderground v.1.15,2013-05-19 12:06:00,
2013-05-19 08:07:00,79.4,71.2,30.06,ESE,121,1.0,2.0,76,0.00,,,0.00,Wunderground v.1.15,2013-05-19 12:07:00,
2013-05-19 08:08:00,79.5,71.3,30.06,ESE,115,1.0,2.0,76,0.00,,,0.00,Wunderground v.1.15,2013-05-19 12:08:00,
2013-05-19 08:13:00,79.9,71.3,30.07,ENE,62,1.0,2.0,75,0.00,,,0.00,Wunderground v.1.15,2013-05-19 12:13:00,
2013-05-19 08:14:00,80.0,71.0,30.07,ESE,120,1.0,2.0,74,0.00,,,0.00,Wunderground v.1.15,2013-05-19 12:14:00,
2013-05-19 08:16:00,80.2,71.2,30.07,ENE,59,1.0,4.0,74,0.00,,,0.00,Wunderground v.1.15,2013-05-19 12:16:00,
2013-05-19 08:17:00,80.2,70.8,30.07,ENE,65,1.0,4.0,73,0.00,,,0.00,Wunderground v.1.15,2013-05-19 12:17:00,
2013-05-19 08:18:00,80.2,70.8,30.07,ENE,74,1.0,4.0,73,0.00,,,0.00,Wunderground v.1.15,2013-05-19 12:18:00,
2013-05-19 08:19:00,80.2,70.4,30.07,SE,143,1.0,4.0,72,0.00,,,0.00,Wunderground v.1.15,2013-05-19 12:19:00,
2013-05-19 08:22:00,80.5,71.0,30.07,ENE,71,1.0,2.0,73,0.00,,,0.00,Wunderground v.1.15,2013-05-19 12:22:00,
2013-05-19 08:26:00,80.5,70.6,30.07,ENE,73,2.0,2.0,72,0.00,,,0.00,Wunderground v.1.15,2013-05-19 12:26:00,
2013-05-19 08:27:00,80.3,70.4,30.08,SE,127,2.0,2.0,72,0.00,,,0.00,Wunderground v.1.15,2013-05-19 12:27:00,
2013-05-19 08:30:00,80.0,70.6,30.08,SE,128,2.0,2.0,73,0.00,,,0.00,Wunderground v.1.15,2013-05-19 12:30:00,
2013-05-19 08:31:00,80.0,70.6,30.08,SE,127,2.0,2.0,73,0.00,,,0.00,Wunderground v.1.15,2013-05-19 12:31:00,
2013-05-19 08:33:00,79.9,70.5,30.08,South,179,2.0,2.0,73,0.00,,,0.00,Wunderground v.1.15,2013-05-19 12:33:00,
2013-05-19 08:35:00,79.9,70.5,30.08,ESE,119,2.0,3.0,73,0.00,,,0.00,Wunderground v.1.15,2013-05-19 12:35:00,
2013-05-19 08:36:00,79.8,70.4,30.08,SE,130,2.0,3.0,73,0.00,,,0.00,Wunderground v.1.15,2013-05-19 12:36:00,
2013-05-19 08:42:00,79.8,70.4,30.08,ENE,74,2.0,2.0,73,0.00,,,0.00,Wunderground v.1.15,2013-05-19 12:42:00,
2013-05-19 08:43:00,79.8,70.4,30.08,East,79,2.0,2.0,73,0.00,,,0.00,Wunderground v.1.15,2013-05-19 12:43:00,
2013-05-19 08:44:00,79.8,70.8,30.08,SE,137,2.0,2.0,74,0.00,,,0.00,Wunderground v.1.15,2013-05-19 12:44:00,
2013-05-19 08:48:00,79.7,70.3,30.08,ENE,77,2.0,3.0,73,0.00,,,0.00,Wunderground v.1.15,2013-05-19 12:48:00,
2013-05-19 08:49:00,79.7,70.3,30.08,ESE,119,2.0,3.0,73,0.00,,,0.00,Wunderground v.1.15,2013-05-19 12:49:00,
2013-05-19 08:52:00,79.7,70.3,30.08,SE,124,2.0,3.0,73,0.00,,,0.00,Wunderground v.1.15,2013-05-19 12:52:00,
2013-05-19 08:54:00,79.8,70.4,30.08,ESE,107,2.0,4.0,73,0.00,,,0.00,Wunderground v.1.15,2013-05-19 12:54:00,
2013-05-19 08:55:00,79.8,70.4,30.08,ENE,66,3.0,4.0,73,0.00,,,0.00,Wunderground v.1.15,2013-05-19 12:55:00,
2013-05-19 08:57:00,79.8,70.4,30.08,ESE,110,2.0,4.0,73,0.00,,,0.00,Wunderground v.1.15,2013-05-19 12:57:00,
2013-05-19 09:00:00,80.0,71.0,30.08,SSE,148,2.0,3.0,74,0.00,,,0.00,Wunderground v.1.15,2013-05-19 13:00:00,
2013-05-19 09:02:00,80.1,70.7,30.08,NE,44,2.0,3.0,73,0.00,,,0.00,Wunderground v.1.15,2013-05-19 13:02:00,
2013-05-19 09:04:00,80.3,70.9,30.08,SE,127,2.0,4.0,73,0.00,,,0.00,Wunderground v.1.15,2013-05-19 13:04:00,
2013-05-19 09:05:00,80.2,70.4,30.08,ENE,63,2.0,4.0,72,0.00,,,0.00,Wunderground v.1.15,2013-05-19 13:05:00,
2013-05-19 09:08:00,80.3,70.9,30.08,SE,135,2.0,4.0,73,0.00,,,0.00,Wunderground v.1.15,2013-05-19 13:08:00,
2013-05-19 09:09:00,80.3,70.9,30.08,SE,143,2.0,4.0,73,0.00,,,0.00,Wunderground v.1.15,2013-05-19 13:09:00,
2013-05-19 09:10:00,80.4,70.5,30.08,ENE,73,2.0,2.0,72,0.00,,,0.00,Wunderground v.1.15,2013-05-19 13:10:00,
2013-05-19 09:11:00,80.3,70.9,30.08,ENE,68,2.0,3.0,73,0.00,,,0.00,Wunderground v.1.15,2013-05-19 13:11:00,
2013-05-19 09:13:00,80.4,70.9,30.08,ESE,108,2.0,3.0,73,0.00,,,0.00,Wunderground v.1.15,2013-05-19 13:13:00,
2013-05-19 09:16:00,80.5,70.6,30.08,East,89,2.0,3.0,72,0.00,,,0.00,Wunderground v.1.15,2013-05-19 13:16:00,
2013-05-19 09:18:00,80.5,70.6,30.08,SSE,160,2.0,3.0,72,0.00,,,0.00,Wunderground v.1.15,2013-05-19 13:18:00,
2013-05-19 09:19:00,80.5,70.6,30.08,ENE,78,2.0,3.0,72,0.00,,,0.00,Wunderground v.1.15,2013-05-19 13:19:00,
2013-05-19 09:20:00,80.5,70.6,30.09,SE,127,2.0,2.0,72,0.00,,,0.00,Wunderground v.1.15,2013-05-19 13:20:00,
2013-05-19 09:23:00,80.6,70.7,30.09,ESE,122,2.0,3.0,72,0.00,,,0.00,Wunderground v.1.15,2013-05-19 13:23:00,
2013-05-19 09:24:00,80.6,70.3,30.09,ENE,72,2.0,5.0,71,0.00,,,0.00,Wunderground v.1.15,2013-05-19 13:24:00,
2013-05-19 09:29:00,80.6,70.7,30.08,East,83,2.0,5.0,72,0.00,,,0.00,Wunderground v.1.15,2013-05-19 13:29:00,
2013-05-19 09:31:00,80.8,70.5,30.08,SE,141,2.0,5.0,71,0.00,,,0.00,Wunderground v.1.15,2013-05-19 13:31:00,
2013-05-19 09:32:00,80.8,70.5,30.08,SE,136,3.0,5.0,71,0.00,,,0.00,Wunderground v.1.15,2013-05-19 13:32:00,
2013-05-19 09:36:00,81.2,70.9,30.08,ENE,67,2.0,7.0,71,0.00,,,0.00,Wunderground v.1.15,2013-05-19 13:36:00,
2013-05-19 09:37:00,81.4,71.1,30.08,ENE,72,3.0,7.0,71,0.00,,,0.00,Wunderground v.1.15,2013-05-19 13:37:00,
2013-05-19 09:38:00,81.4,70.7,30.09,ENE,62,3.0,7.0,70,0.00,,,0.00,Wunderground v.1.15,2013-05-19 13:38:00,
2013-05-19 09:39:00,81.5,70.8,30.09,ENE,66,3.0,7.0,70,0.00,,,0.00,Wunderground v.1.15,2013-05-19 13:39:00,
2013-05-19 09:43:00,81.4,70.2,30.08,SSE,150,4.0,7.0,69,0.00,,,0.00,Wunderground v.1.15,2013-05-19 13:43:00,
2013-05-19 09:45:00,81.5,70.8,30.08,SSW,203,4.0,7.0,70,0.00,,,0.00,Wunderground v.1.15,2013-05-19 13:45:00,
2013-05-19 09:46:00,81.7,71.0,30.08,SE,125,4.0,7.0,70,0.00,,,0.00,Wunderground v.1.15,2013-05-19 13:46:00,
2013-05-19 09:47:00,81.8,70.6,30.08,NE,49,3.0,7.0,69,0.00,,,0.00,Wunderground v.1.15,2013-05-19 13:47:00,
2013-05-19 09:52:00,82.4,70.3,30.09,SSE,159,3.0,7.0,67,0.00,,,0.00,Wunderground v.1.15,2013-05-19 13:52:00,
2013-05-19 09:53:00,82.4,70.3,30.09,South,169,3.0,7.0,67,0.00,,,0.00,Wunderground v.1.15,2013-05-19 13:53:00,
2013-05-19 09:54:00,82.4,70.3,30.09,ESE,111,3.0,7.0,67,0.00,,,0.00,Wunderground v.1.15,2013-05-19 13:54:00,
2013-05-19 09:59:00,82.4,70.8,30.08,ESE,109,3.0,7.0,68,0.00,,,0.00,Wunderground v.1.15,2013-05-19 13:59:00,
2013-05-19 10:01:00,82.6,71.0,30.08,ENE,58,3.0,3.0,68,0.00,,,0.00,Wunderground v.1.15,2013-05-19 14:01:00,
2013-05-19 10:05:00,82.7,70.2,30.08,ENE,61,3.0,6.0,66,0.00,,,0.00,Wunderground v.1.15,2013-05-19 14:05:00,
2013-05-19 10:07:00,82.8,70.7,30.08,SE,128,3.0,6.0,67,0.00,,,0.00,Wunderground v.1.15,2013-05-19 14:07:00,
2013-05-19 10:08:00,82.8,70.3,30.08,SE,139,3.0,6.0,66,0.00,,,0.00,Wunderground v.1.15,2013-05-19 14:08:00,
2013-05-19 10:09:00,83.0,70.5,30.08,SSE,162,4.0,6.0,66,0.00,,,0.00,Wunderground v.1.15,2013-05-19 14:09:00,
2013-05-19 10:10:00,83.0,70.5,30.09,SE,143,4.0,4.0,66,0.00,,,0.00,Wunderground v.1.15,2013-05-19 14:10:00,
2013-05-19 10:14:00,82.9,69.9,30.08,SE,137,4.0,5.0,65,0.00,,,0.00,Wunderground v.1.15,2013-05-19 14:14:00,
2013-05-19 10:15:00,82.8,70.3,30.08,SE,142,4.0,5.0,66,0.00,,,0.00,Wunderground v.1.15,2013-05-19 14:15:00,
2013-05-19 10:16:00,82.7,70.2,30.09,ENE,74,4.0,5.0,66,0.00,,,0.00,Wunderground v.1.15,2013-05-19 14:16:00,
2013-05-19 10:21:00,82.9,70.4,30.09,ESE,113,4.0,4.0,66,0.00,,,0.00,Wunderground v.1.15,2013-05-19 14:21:00,
2013-05-19 10:24:00,83.0,70.0,30.08,East,82,4.0,5.0,65,0.00,,,0.00,Wunderground v.1.15,2013-05-19 14:24:00,
2013-05-19 10:26:00,83.0,69.6,30.08,ENE,62,4.0,5.0,64,0.00,,,0.00,Wunderground v.1.15,2013-05-19 14:26:00,
2013-05-19 10:28:00,83.3,70.3,30.08,ENE,68,4.0,5.0,65,0.00,,,0.00,Wunderground v.1.15,2013-05-19 14:28:00,
2013-05-19 10:30:00,83.6,70.6,30.08,SE,127,4.0,4.0,65,0.00,,,0.00,Wunderground v.1.15,2013-05-19 14:30:00,
2013-05-19 10:33:00,84.0,70.5,30.08,SE,129,4.0,8.0,64,0.00,,,0.00,Wunderground v.1.15,2013-05-19 14:33:00,
2013-05-19 10:34:00,84.2,70.7,30.08,SE,140,4.0,8.0,64,0.00,,,0.00,Wunderground v.1.15,2013-05-19 14:34:00,
2013-05-19 10:35:00,84.3,70.3,30.08,SE,124,3.0,8.0,63,0.00,,,0.00,Wunderground v.1.15,2013-05-19 14:35:00,
2013-05-19 10:36:00,84.3,70.8,30.08,SE,141,3.0,8.0,64,0.00,,,0.00,Wunderground v.1.15,2013-05-19 14:36:00,
2013-05-19 10:40:00,84.7,70.2,30.08,SE,135,3.0,3.0,62,0.00,,,0.00,Wunderground v.1.15,2013-05-19 14:40:00,
2013-05-19 10:41:00,84.8,70.8,30.08,East,98,3.0,4.0,63,0.00,,,0.00,Wunderground v.1.15,2013-05-19 14:41:00,
2013-05-19 10:45:00,84.9,69.9,30.08,SE,135,3.0,8.0,61,0.00,,,0.00,Wunderground v.1.15,2013-05-19 14:45:00,
2013-05-19 10:47:00,84.8,70.3,30.08,ENE,67,3.0,8.0,62,0.00,,,0.00,Wunderground v.1.15,2013-05-19 14:47:00,
2013-05-19 10:48:00,84.8,70.8,30.08,ENE,60,3.0,8.0,63,0.00,,,0.00,Wunderground v.1.15,2013-05-19 14:48:00,
2013-05-19 10:50:00,84.8,70.3,30.08,ESE,108,4.0,4.0,62,0.00,,,0.00,Wunderground v.1.15,2013-05-19 14:50:00,
2013-05-19 10:52:00,84.9,70.4,30.08,East,94,4.0,8.0,62,0.00,,,0.00,Wunderground v.1.15,2013-05-19 14:52:00,
2013-05-19 10:55:00,85.1,70.1,30.08,ENE,72,3.0,8.0,61,0.00,,,0.00,Wunderground v.1.15,2013-05-19 14:55:00,
2013-05-19 10:58:00,85.3,70.3,30.08,NE,48,3.0,8.0,61,0.00,,,0.00,Wunderground v.1.15,2013-05-19 14:58:00,
2013-05-19 11:01:00,85.4,69.9,30.08,SSE,153,3.0,3.0,60,0.00,,,0.00,Wunderground v.1.15,2013-05-19 15:01:00,
2013-05-19 11:04:00,85.7,70.7,30.08,ENE,77,3.0,4.0,61,0.00,,,0.00,Wunderground v.1.15,2013-05-19 15:04:00,
2013-05-19 11:05:00,85.9,70.4,30.08,SSE,156,3.0,4.0,60,0.00,,,0.00,Wunderground v.1.15,2013-05-19 15:05:00,
2013-05-19 11:06:00,86.0,70.5,30.08,ESE,117,3.0,4.0,60,0.00,,,0.00,Wunderground v.1.15,2013-05-19 15:06:00,
2013-05-19 11:08:00,86.2,70.7,30.08,SE,131,3.0,4.0,60,0.00,,,0.00,Wunderground v.1.15,2013-05-19 15:08:00,
2013-05-19 11:12:00,85.9,70.4,30.08,ENE,68,3.0,5.0,60,0.00,,,0.00,Wunderground v.1.15,2013-05-19 15:12:00,
2013-05-19 11:13:00,85.9,70.4,30.08,ENE,63,3.0,5.0,60,0.00,,,0.00,Wunderground v.1.15,2013-05-19 15:13:00,
2013-05-19 11:16:00,85.6,70.1,30.08,ENE,75,4.0,9.0,60,0.00,,,0.00,Wunderground v.1.15,2013-05-19 15:16:00,
2013-05-19 11:17:00,85.6,70.1,30.08,SE,132,4.0,9.0,60,0.00,,,0.00,Wunderground v.1.15,2013-05-19 15:17:00,
2013-05-19 11:21:00,85.9,70.4,30.08,ENE,68,3.0,4.0,60,0.00,,,0.00,Wunderground v.1.15,2013-05-19 15:21:00,
2013-05-19 11:22:00,86.0,70.0,30.08,SE,133,3.0,4.0,59,0.00,,,0.00,Wunderground v.1.15,2013-05-19 15:22:00,
2013-05-19 11:26:00,86.6,71.1,30.08,East,83,3.0,4.0,60,0.00,,,0.00,Wunderground v.1.15,2013-05-19 15:26:00,
2013-05-19 11:27:00,86.7,71.2,30.08,SE,124,2.0,4.0,60,0.00,,,0.00,Wunderground v.1.15,2013-05-19 15:27:00,
2013-05-19 11:29:00,86.8,70.2,30.08,SSE,160,3.0,5.0,58,0.00,,,0.00,Wunderground v.1.15,2013-05-19 15:29:00,
2013-05-19 11:30:00,86.8,70.2,30.08,SE,127,3.0,5.0,58,0.00,,,0.00,Wunderground v.1.15,2013-05-19 15:30:00,
2013-05-19 11:33:00,86.7,69.6,30.08,SSE,147,3.0,9.0,57,0.00,,,0.00,Wunderground v.1.15,2013-05-19 15:33:00,
2013-05-19 11:35:00,86.4,69.9,30.08,ESE,119,3.0,9.0,58,0.00,,,0.00,Wunderground v.1.15,2013-05-19 15:35:00,
2013-05-19 11:37:00,86.4,69.9,30.08,SE,131,4.0,9.0,58,0.00,,,0.00,Wunderground v.1.15,2013-05-19 15:37:00,
2013-05-19 11:41:00,86.2,69.7,30.08,SSE,150,4.0,9.0,58,0.00,,,0.00,Wunderground v.1.15,2013-05-19 15:41:00,
2013-05-19 11:42:00,86.1,69.6,30.08,SSE,160,4.0,9.0,58,0.00,,,0.00,Wunderground v.1.15,2013-05-19 15:42:00,
2013-05-19 11:45:00,86.0,70.0,30.08,NE,54,4.0,9.0,59,0.00,,,0.00,Wunderground v.1.15,2013-05-19 15:45:00,
2013-05-19 11:46:00,85.9,69.4,30.08,ESE,113,4.0,9.0,58,0.00,,,0.00,Wunderground v.1.15,2013-05-19 15:46:00,
2013-05-19 11:47:00,86.0,70.5,30.08,ENE,60,4.0,9.0,60,0.00,,,0.00,Wunderground v.1.15,2013-05-19 15:47:00,
2013-05-19 11:49:00,85.8,69.3,30.08,ESE,116,4.0,9.0,58,0.00,,,0.00,Wunderground v.1.15,2013-05-19 15:49:00,
2013-05-19 11:51:00,86.0,70.0,30.08,East,86,3.0,9.0,59,0.00,,,0.00,Wunderground v.1.15,2013-05-19 15:51:00,
2013-05-19 11:52:00,86.3,70.3,30.08,ESE,119,3.0,9.0,59,0.00,,,0.00,Wunderground v.1.15,2013-05-19 15:52:00,
2013-05-19 11:55:00,86.6,69.6,30.08,East,91,3.0,9.0,57,0.00,,,0.00,Wunderground v.1.15,2013-05-19 15:55:00,
2013-05-19 11:56:00,86.6,69.6,30.08,North,358,3.0,9.0,57,0.00,,,0.00,Wunderground v.1.15,2013-05-19 15:56:00,
2013-05-19 11:58:00,86.7,69.1,30.08,ENE,59,2.0,9.0,56,0.00,,,0.00,Wunderground v.1.15,2013-05-19 15:58:00,
2013-05-19 12:02:00,86.6,69.6,30.08,NE,54,2.0,3.0,57,0.00,,,0.00,Wunderground v.1.15,2013-05-19 16:02:00,
2013-05-19 12:03:00,86.7,69.1,30.08,NNW,333,3.0,3.0,56,0.00,,,0.00,Wunderground v.1.15,2013-05-19 16:03:00,
2013-05-19 12:05:00,86.7,69.6,30.08,ESE,102,3.0,5.0,57,0.00,,,0.00,Wunderground v.1.15,2013-05-19 16:05:00,
2013-05-19 12:07:00,86.9,69.3,30.08,North,354,3.0,5.0,56,0.00,,,0.00,Wunderground v.1.15,2013-05-19 16:07:00,
2013-05-19 12:08:00,86.9,69.3,30.08,SSE,148,3.0,5.0,56,0.00,,,0.00,Wunderground v.1.15,2013-05-19 16:08:00,
2013-05-19 12:12:00,87.2,68.5,30.08,SE,145,3.0,7.0,54,0.00,,,0.00,Wunderground v.1.15,2013-05-19 16:12:00,
2013-05-19 12:14:00,87.1,69.5,30.08,SSE,157,3.0,7.0,56,0.00,,,0.00,Wunderground v.1.15,2013-05-19 16:14:00,
2013-05-19 12:17:00,87.3,69.7,30.08,East,84,3.0,7.0,56,0.00,,,0.00,Wunderground v.1.15,2013-05-19 16:17:00,
2013-05-19 12:20:00,87.2,69.1,30.08,East,99,3.0,3.0,55,0.00,,,0.00,Wunderground v.1.15,2013-05-19 16:20:00,
2013-05-19 12:21:00,87.0,69.4,30.08,NE,36,3.0,7.0,56,0.00,,,0.00,Wunderground v.1.15,2013-05-19 16:21:00,
2013-05-19 12:26:00,86.4,69.9,30.08,South,187,3.0,7.0,58,0.00,,,0.00,Wunderground v.1.15,2013-05-19 16:26:00,
2013-05-19 12:27:00,86.3,69.8,30.07,SSE,155,3.0,7.0,58,0.00,,,0.00,Wunderground v.1.15,2013-05-19 16:27:00,
2013-05-19 12:28:00,86.2,69.7,30.07,East,101,3.0,7.0,58,0.00,,,0.00,Wunderground v.1.15,2013-05-19 16:28:00,
2013-05-19 12:31:00,85.8,69.3,30.07,ENE,68,3.0,9.0,58,0.00,,,0.00,Wunderground v.1.15,2013-05-19 16:31:00,
2013-05-19 12:34:00,85.9,69.4,30.07,SE,142,3.0,9.0,58,0.00,,,0.00,Wunderground v.1.15,2013-05-19 16:34:00,
2013-05-19 12:35:00,86.0,69.5,30.07,ESE,108,3.0,9.0,58,0.00,,,0.00,Wunderground v.1.15,2013-05-19 16:35:00,
2013-05-19 12:37:00,86.1,69.6,30.07,SE,140,4.0,9.0,58,0.00,,,0.00,Wunderground v.1.15,2013-05-19 16:37:00,
2013-05-19 12:40:00,86.1,69.6,30.07,ENE,69,3.0,9.0,58,0.00,,,0.00,Wunderground v.1.15,2013-05-19 16:40:00,
2013-05-19 12:41:00,86.2,70.2,30.07,SE,136,3.0,9.0,59,0.00,,,0.00,Wunderground v.1.15,2013-05-19 16:41:00,
2013-05-19 12:42:00,86.3,69.8,30.07,ESE,122,3.0,9.0,58,0.00,,,0.00,Wunderground v.1.15,2013-05-19 16:42:00,
2013-05-19 12:44:00,86.5,70.5,30.07,East,86,3.0,9.0,59,0.00,,,0.00,Wunderground v.1.15,2013-05-19 16:44:00,
2013-05-19 12:47:00,86.9,70.3,30.07,ENE,58,3.0,9.0,58,0.00,,,0.00,Wunderground v.1.15,2013-05-19 16:47:00,
2013-05-19 12:48:00,87.1,69.5,30.06,East,86,3.0,9.0,56,0.00,,,0.00,Wunderground v.1.15,2013-05-19 16:48:00,
2013-05-19 12:49:00,87.0,69.4,30.06,East,94,3.0,9.0,56,0.00,,,0.00,Wunderground v.1.15,2013-05-19 16:49:00,
2013-05-19 12:53:00,87.0,69.4,30.07,SE,124,4.0,9.0,56,0.00,,,0.00,Wunderground v.1.15,2013-05-19 16:53:00,
2013-05-19 12:54:00,86.9,69.3,30.06,SE,132,3.0,9.0,56,0.00,,,0.00,Wunderground v.1.15,2013-05-19 16:54:00,
2013-05-19 12:56:00,87.1,69.5,30.06,ESE,111,3.0,9.0,56,0.00,,,0.00,Wunderground v.1.15,2013-05-19 16:56:00,
2013-05-19 12:57:00,87.2,70.6,30.06,ESE,122,3.0,9.0,58,0.00,,,0.00,Wunderground v.1.15,2013-05-19 16:57:00,
2013-05-19 13:00:00,87.7,70.1,30.06,South,191,3.0,3.0,56,0.00,,,0.00,Wunderground v.1.15,2013-05-19 17:00:00,
2013-05-19 13:02:00,88.1,69.9,30.06,ENE,70,3.0,3.0,55,0.00,,,0.00,Wunderground v.1.15,2013-05-19 17:02:00,
2013-05-19 13:05:00,88.2,69.5,30.06,ENE,57,3.0,6.0,54,0.00,,,0.00,Wunderground v.1.15,2013-05-19 17:05:00,
2013-05-19 13:07:00,88.3,69.5,30.06,ESE,118,3.0,6.0,54,0.00,,,0.00,Wunderground v.1.15,2013-05-19 17:07:00,
2013-05-19 13:09:00,88.2,69.5,30.06,SE,131,3.0,6.0,54,0.00,,,0.00,Wunderground v.1.15,2013-05-19 17:09:00,
2013-05-19 13:10:00,88.2,69.5,30.06,SE,143,3.0,3.0,54,0.00,,,0.00,Wunderground v.1.15,2013-05-19 17:10:00,
2013-05-19 13:11:00,88.3,69.0,30.06,SE,129,3.0,3.0,53,0.00,,,0.00,Wunderground v.1.15,2013-05-19 17:11:00,
2013-05-19 13:13:00,88.3,69.0,30.06,SE,136,3.0,5.0,53,0.00,,,0.00,Wunderground v.1.15,2013-05-19 17:13:00,
2013-05-19 13:16:00,88.3,69.0,30.06,ESE,109,3.0,5.0,53,0.00,,,0.00,Wunderground v.1.15,2013-05-19 17:16:00,
2013-05-19 13:17:00,88.4,69.1,30.06,SE,144,3.0,5.0,53,0.00,,,0.00,Wunderground v.1.15,2013-05-19 17:17:00,
2013-05-19 13:22:00,87.8,69.1,30.06,SSE,158,4.0,5.0,54,0.00,,,0.00,Wunderground v.1.15,2013-05-19 17:22:00,
2013-05-19 13:23:00,87.8,68.5,30.06,ESE,122,4.0,5.0,53,0.00,,,0.00,Wunderground v.1.15,2013-05-19 17:23:00,
2013-05-19 13:24:00,87.8,68.5,30.06,South,188,4.0,5.0,53,0.00,,,0.00,Wunderground v.1.15,2013-05-19 17:24:00,
2013-05-19 13:25:00,87.8,68.5,30.06,SSE,153,4.0,5.0,53,0.00,,,0.00,Wunderground v.1.15,2013-05-19 17:25:00,
2013-05-19 13:29:00,87.6,68.9,30.05,SE,135,4.0,6.0,54,0.00,,,0.00,Wunderground v.1.15,2013-05-19 17:29:00,
2013-05-19 13:31:00,87.7,69.5,30.05,ESE,123,4.0,11.0,55,0.00,,,0.00,Wunderground v.1.15,2013-05-19 17:31:00,
2013-05-19 13:32:00,87.8,69.6,30.05,SSE,148,4.0,11.0,55,0.00,,,0.00,Wunderground v.1.15,2013-05-19 17:32:00,
2013-05-19 13:34:00,87.7,69.0,30.05,East,91,4.0,11.0,54,0.00,,,0.00,Wunderground v.1.15,2013-05-19 17:34:00,
2013-05-19 13:36:00,87.5,68.8,30.05,East,87,4.0,11.0,54,0.00,,,0.00,Wunderground v.1.15,2013-05-19 17:36:00,
2013-05-19 13:37:00,87.5,67.7,30.05,SE,136,4.0,11.0,52,0.00,,,0.00,Wunderground v.1.15,2013-05-19 17:37:00,
2013-05-19 13:41:00,87.8,69.1,30.05,SE,134,3.0,11.0,54,0.00,,,0.00,Wunderground v.1.15,2013-05-19 17:41:00,
2013-05-19 13:42:00,87.7,67.9,30.05,East,80,3.0,11.0,52,0.00,,,0.00,Wunderground v.1.15,2013-05-19 17:42:00,
2013-05-19 13:43:00,87.6,68.9,30.05,East,82,3.0,11.0,54,0.00,,,0.00,Wunderground v.1.15,2013-05-19 17:43:00,
2013-05-19 13:46:00,87.3,67.5,30.05,ESE,113,3.0,11.0,52,0.00,,,0.00,Wunderground v.1.15,2013-05-19 17:46:00,
2013-05-19 13:49:00,87.7,69.0,30.05,South,183,4.0,11.0,54,0.00,,,0.00,Wunderground v.1.15,2013-05-19 17:49:00,
2013-05-19 13:50:00,87.8,68.0,30.05,SE,133,4.0,11.0,52,0.00,,,0.00,Wunderground v.1.15,2013-05-19 17:50:00,
2013-05-19 13:52:00,87.8,68.5,30.05,ESE,119,4.0,11.0,53,0.00,,,0.00,Wunderground v.1.15,2013-05-19 17:52:00,
2013-05-19 13:53:00,87.9,68.6,30.05,SSE,159,4.0,11.0,53,0.00,,,0.00,Wunderground v.1.15,2013-05-19 17:53:00,
2013-05-19 13:55:00,87.9,68.6,30.04,SE,135,3.0,11.0,53,0.00,,,0.00,Wunderground v.1.15,2013-05-19 17:55:00,
2013-05-19 13:57:00,87.7,68.4,30.04,ENE,72,4.0,11.0,53,0.00,,,0.00,Wunderground v.1.15,2013-05-19 17:57:00,
2013-05-19 14:00:00,87.4,68.7,30.04,ESE,109,4.0,6.0,54,0.00,,,0.00,Wunderground v.1.15,2013-05-19 18:00:00,
2013-05-19 14:02:00,87.4,68.7,30.04,SSW,195,4.0,8.0,54,0.00,,,0.00,Wunderground v.1.15,2013-05-19 18:02:00,
2013-05-19 14:04:00,87.6,68.4,30.04,ESE,109,5.0,8.0,53,0.00,,,0.00,Wunderground v.1.15,2013-05-19 18:04:00,
2013-05-19 14:05:00,87.7,67.3,30.04,SE,143,4.0,8.0,51,0.00,,,0.00,Wunderground v.1.15,2013-05-19 18:05:00,
2013-05-19 14:08:00,87.7,68.4,30.04,South,169,4.0,8.0,53,0.00,,,0.00,Wunderground v.1.15,2013-05-19 18:08:00,
2013-05-19 14:10:00,87.8,68.0,30.04,ENE,78,4.0,5.0,52,0.00,,,0.00,Wunderground v.1.15,2013-05-19 18:10:00,
2013-05-19 14:11:00,87.8,67.4,30.04,East,89,4.0,6.0,51,0.00,,,0.00,Wunderground v.1.15,2013-05-19 18:11:00,
2013-05-19 14:12:00,87.7,66.8,30.04,East,89,4.0,6.0,50,0.00,,,0.00,Wunderground v.1.15,2013-05-19 18:12:00,
2013-05-19 14:13:00,87.6,67.2,30.04,SE,133,4.0,6.0,51,0.00,,,0.00,Wunderground v.1.15,2013-05-19 18:13:00,
2013-05-19 14:14:00,87.5,66.6,30.04,ENE,65,4.0,6.0,50,0.00,,,0.00,Wunderground v.1.15,2013-05-19 18:14:00,
2013-05-19 14:17:00,87.5,66.6,30.04,NE,51,4.0,6.0,50,0.00,,,0.00,Wunderground v.1.15,2013-05-19 18:17:00,
2013-05-19 14:18:00,87.5,67.7,30.04,East,82,4.0,6.0,52,0.00,,,0.00,Wunderground v.1.15,2013-05-19 18:18:00,
2013-05-19 14:19:00,87.6,67.2,30.04,SSE,150,4.0,6.0,51,0.00,,,0.00,Wunderground v.1.15,2013-05-19 18:19:00,
2013-05-19 14:20:00,87.7,67.9,30.04,SSE,150,4.0,4.0,52,0.00,,,0.00,Wunderground v.1.15,2013-05-19 18:20:00,
2013-05-19 14:25:00,87.9,67.5,30.04,SE,141,3.0,4.0,51,0.00,,,0.00,Wunderground v.1.15,2013-05-19 18:25:00,
2013-05-19 14:26:00,88.0,67.0,30.03,SE,135,3.0,5.0,50,0.00,,,0.00,Wunderground v.1.15,2013-05-19 18:26:00,
2013-05-19 14:27:00,88.0,67.6,30.03,ENE,62,4.0,8.0,51,0.00,,,0.00,Wunderground v.1.15,2013-05-19 18:27:00,
2013-05-19 14:29:00,88.1,67.1,30.03,ESE,120,4.0,8.0,50,0.00,,,0.00,Wunderground v.1.15,2013-05-19 18:29:00,
2013-05-19 14:31:00,88.1,67.1,30.03,East,87,4.0,5.0,50,0.00,,,0.00,Wunderground v.1.15,2013-05-19 18:31:00,
2013-05-19 14:32:00,88.0,67.6,30.03,ESE,121,4.0,11.0,51,0.00,,,0.00,Wunderground v.1.15,2013-05-19 18:32:00,
2013-05-19 14:34:00,88.2,67.2,30.03,East,89,4.0,11.0,50,0.00,,,0.00,Wunderground v.1.15,2013-05-19 18:34:00,
2013-05-19 14:35:00,88.3,67.3,30.03,East,79,4.0,11.0,50,0.00,,,0.00,Wunderground v.1.15,2013-05-19 18:35:00,
2013-05-19 14:36:00,88.3,67.3,30.03,ENE,70,4.0,11.0,50,0.00,,,0.00,Wunderground v.1.15,2013-05-19 18:36:00,
2013-05-19 14:39:00,88.2,67.8,30.03,SE,135,4.0,11.0,51,0.00,,,0.00,Wunderground v.1.15,2013-05-19 18:39:00,
2013-05-19 14:42:00,88.2,67.8,30.03,East,89,4.0,11.0,51,0.00,,,0.00,Wunderground v.1.15,2013-05-19 18:42:00,
2013-05-19 14:44:00,88.1,68.3,30.03,ENE,64,4.0,11.0,52,0.00,,,0.00,Wunderground v.1.15,2013-05-19 18:44:00,
2013-05-19 14:47:00,88.1,68.3,30.03,SE,139,4.0,11.0,52,0.00,,,0.00,Wunderground v.1.15,2013-05-19 18:47:00,
2013-05-19 14:50:00,88.3,67.9,30.03,NE,51,4.0,11.0,51,0.00,,,0.00,Wunderground v.1.15,2013-05-19 18:50:00,
2013-05-19 14:51:00,88.2,68.4,30.03,NE,51,4.0,11.0,52,0.00,,,0.00,Wunderground v.1.15,2013-05-19 18:51:00,
2013-05-19 14:52:00,88.1,67.7,30.03,North,8,4.0,11.0,51,0.00,,,0.00,Wunderground v.1.15,2013-05-19 18:52:00,
2013-05-19 14:54:00,88.2,68.4,30.02,ESE,117,4.0,11.0,52,0.00,,,0.00,Wunderground v.1.15,2013-05-19 18:54:00,
2013-05-19 14:58:00,87.8,67.4,30.03,SSE,148,4.0,11.0,51,0.00,,,0.00,Wunderground v.1.15,2013-05-19 18:58:00,
2013-05-19 14:59:00,87.7,67.9,30.02,ESE,117,4.0,11.0,52,0.00,,,0.00,Wunderground v.1.15,2013-05-19 18:59:00,
2013-05-19 15:00:00,87.7,67.9,30.02,ESE,107,4.0,4.0,52,0.00,,,0.00,Wunderground v.1.15,2013-05-19 19:00:00,
2013-05-19 15:04:00,88.2,68.4,30.02,ESE,122,4.0,4.0,52,0.00,,,0.00,Wunderground v.1.15,2013-05-19 19:04:00,
2013-05-19 15:05:00,88.3,67.9,30.02,SE,144,4.0,6.0,51,0.00,,,0.00,Wunderground v.1.15,2013-05-19 19:05:00,
2013-05-19 15:08:00,88.0,68.7,30.02,ENE,74,4.0,6.0,53,0.00,,,0.00,Wunderground v.1.15,2013-05-19 19:08:00,
2013-05-19 15:10:00,88.1,68.3,30.02,NE,55,4.0,4.0,52,0.00,,,0.00,Wunderground v.1.15,2013-05-19 19:10:00,
2013-05-19 15:11:00,88.1,68.8,30.02,ENE,68,4.0,4.0,53,0.00,,,0.00,Wunderground v.1.15,2013-05-19 19:11:00,
2013-05-19 15:14:00,88.3,69.5,30.02,ESE,103,4.0,6.0,54,0.00,,,0.00,Wunderground v.1.15,2013-05-19 19:14:00,
2013-05-19 15:15:00,88.3,69.0,30.02,SSE,167,4.0,6.0,53,0.00,,,0.00,Wunderground v.1.15,2013-05-19 19:15:00,
2013-05-19 15:16:00,88.2,68.4,30.02,ESE,113,4.0,6.0,52,0.00,,,0.00,Wunderground v.1.15,2013-05-19 19:16:00,
2013-05-19 15:17:00,88.0,68.7,30.02,East,80,4.0,13.0,53,0.00,,,0.00,Wunderground v.1.15,2013-05-19 19:17:00,
2013-05-19 15:19:00,87.6,68.4,30.02,SSE,162,4.0,13.0,53,0.00,,,0.00,Wunderground v.1.15,2013-05-19 19:19:00,
2013-05-19 15:20:00,87.5,68.3,30.01,NE,53,4.0,4.0,53,0.00,,,0.00,Wunderground v.1.15,2013-05-19 19:20:00,
2013-05-19 15:24:00,87.6,69.4,30.01,SE,146,4.0,5.0,55,0.00,,,0.00,Wunderground v.1.15,2013-05-19 19:24:00,
2013-05-19 15:25:00,87.7,68.4,30.02,SE,143,4.0,5.0,53,0.00,,,0.00,Wunderground v.1.15,2013-05-19 19:25:00,
2013-05-19 15:26:00,87.8,68.0,30.01,SE,126,4.0,9.0,52,0.00,,,0.00,Wunderground v.1.15,2013-05-19 19:26:00,
2013-05-19 15:28:00,87.7,68.4,30.01,ENE,67,4.0,9.0,53,0.00,,,0.00,Wunderground v.1.15,2013-05-19 19:28:00,
2013-05-19 15:31:00,87.2,68.5,30.01,ESE,109,4.0,5.0,54,0.00,,,0.00,Wunderground v.1.15,2013-05-19 19:31:00,
2013-05-19 15:32:00,87.2,68.5,30.01,ESE,102,5.0,13.0,54,0.00,,,0.00,Wunderground v.1.15,2013-05-19 19:32:00,
2013-05-19 15:36:00,87.8,69.1,30.01,ENE,63,5.0,13.0,54,0.00,,,0.00,Wunderground v.1.15,2013-05-19 19:36:00,
2013-05-19 15:37:00,87.9,68.6,30.01,ENE,61,5.0,13.0,53,0.00,,,0.00,Wunderground v.1.15,2013-05-19 19:37:00,
2013-05-19 15:39:00,87.6,68.4,30.01,ESE,102,5.0,13.0,53,0.00,,,0.00,Wunderground v.1.15,2013-05-19 19:39:00,
2013-05-19 15:42:00,87.1,67.9,30.01,ENE,76,5.0,13.0,53,0.00,,,0.00,Wunderground v.1.15,2013-05-19 19:42:00,
2013-05-19 15:43:00,86.9,68.3,30.01,NE,46,5.0,13.0,54,0.00,,,0.00,Wunderground v.1.15,2013-05-19 19:43:00,
2013-05-19 15:45:00,86.9,68.8,30.01,East,98,5.0,13.0,55,0.00,,,0.00,Wunderground v.1.15,2013-05-19 19:45:00,
2013-05-19 15:46:00,87.0,68.9,30.01,SE,129,5.0,13.0,55,0.00,,,0.00,Wunderground v.1.15,2013-05-19 19:46:00,
2013-05-19 15:48:00,87.2,68.0,30.01,SE,126,5.0,13.0,53,0.00,,,0.00,Wunderground v.1.15,2013-05-19 19:48:00,
2013-05-19 15:51:00,87.1,68.4,30.01,South,181,5.0,13.0,54,0.00,,,0.00,Wunderground v.1.15,2013-05-19 19:51:00,
2013-05-19 15:53:00,87.0,68.3,30.01,East,79,4.0,13.0,54,0.00,,,0.00,Wunderground v.1.15,2013-05-19 19:53:00,
2013-05-19 15:54:00,86.9,68.3,30.01,SE,133,5.0,13.0,54,0.00,,,0.00,Wunderground v.1.15,2013-05-19 19:54:00,
2013-05-19 15:59:00,86.6,68.5,30.01,ENE,73,5.0,13.0,55,0.00,,,0.00,Wunderground v.1.15,2013-05-19 19:59:00,
2013-05-19 16:00:00,86.7,69.1,30.01,SSE,150,5.0,5.0,56,0.00,,,0.00,Wunderground v.1.15,2013-05-19 20:00:00,
2013-05-19 16:01:00,86.8,68.7,30.01,East,82,5.0,8.0,55,0.00,,,0.00,Wunderground v.1.15,2013-05-19 20:01:00,
2013-05-19 16:03:00,86.9,68.8,30.01,East,93,5.0,8.0,55,0.00,,,0.00,Wunderground v.1.15,2013-05-19 20:03:00,
2013-05-19 16:05:00,86.9,69.3,30.01,ENE,71,5.0,8.0,56,0.00,,,0.00,Wunderground v.1.15,2013-05-19 20:05:00,
2013-05-19 16:06:00,86.8,69.2,30.01,NE,51,5.0,8.0,56,0.00,,,0.00,Wunderground v.1.15,2013-05-19 20:06:00,
2013-05-19 16:08:00,86.9,69.8,30.01,NE,46,5.0,8.0,57,0.00,,,0.00,Wunderground v.1.15,2013-05-19 20:08:00,
2013-05-19 16:11:00,87.4,69.3,30.00,SE,135,4.0,9.0,55,0.00,,,0.00,Wunderground v.1.15,2013-05-19 20:11:00,
2013-05-19 16:12:00,87.4,69.3,30.00,NW,316,4.0,9.0,55,0.00,,,0.00,Wunderground v.1.15,2013-05-19 20:12:00,
2013-05-19 16:13:00,87.4,69.8,30.00,ENE,68,4.0,9.0,56,0.00,,,0.00,Wunderground v.1.15,2013-05-19 20:13:00,
2013-05-19 16:15:00,87.5,69.9,30.00,East,80,4.0,9.0,56,0.00,,,0.00,Wunderground v.1.15,2013-05-19 20:15:00,
2013-05-19 16:19:00,87.0,69.4,30.00,SSE,165,4.0,9.0,56,0.00,,,0.00,Wunderground v.1.15,2013-05-19 20:19:00,
2013-05-19 16:20:00,87.0,69.4,30.01,ENE,71,4.0,4.0,56,0.00,,,0.00,Wunderground v.1.15,2013-05-19 20:20:00,
2013-05-19 16:23:00,86.9,68.8,30.00,ENE,72,5.0,7.0,55,0.00,,,0.00,Wunderground v.1.15,2013-05-19 20:23:00,
2013-05-19 16:24:00,86.8,68.7,30.01,North,1,5.0,8.0,55,0.00,,,0.00,Wunderground v.1.15,2013-05-19 20:24:00,
2013-05-19 16:25:00,86.6,68.5,30.01,ENE,77,5.0,8.0,55,0.00,,,0.00,Wunderground v.1.15,2013-05-19 20:25:00,
2013-05-19 16:26:00,86.6,68.5,30.01,East,82,5.0,8.0,55,0.00,,,0.00,Wunderground v.1.15,2013-05-19 20:26:00,
2013-05-19 16:27:00,86.6,68.5,30.00,East,79,5.0,8.0,55,0.00,,,0.00,Wunderground v.1.15,2013-05-19 20:27:00,
2013-05-19 16:29:00,86.6,69.0,30.00,East,87,5.0,8.0,56,0.00,,,0.00,Wunderground v.1.15,2013-05-19 20:29:00,
2013-05-19 16:32:00,86.9,69.3,30.00,WNW,291,5.0,13.0,56,0.00,,,0.00,Wunderground v.1.15,2013-05-19 20:32:00,
2013-05-19 16:33:00,87.0,68.9,30.00,ENE,66,4.0,13.0,55,0.00,,,0.00,Wunderground v.1.15,2013-05-19 20:33:00,
2013-05-19 16:35:00,87.0,68.9,30.00,East,81,4.0,13.0,55,0.00,,,0.00,Wunderground v.1.15,2013-05-19 20:35:00,
2013-05-19 16:36:00,87.0,69.4,30.00,SE,134,4.0,13.0,56,0.00,,,0.00,Wunderground v.1.15,2013-05-19 20:36:00,
2013-05-19 16:38:00,87.2,69.6,30.00,East,97,4.0,13.0,56,0.00,,,0.00,Wunderground v.1.15,2013-05-19 20:38:00,
2013-05-19 16:40:00,87.2,69.6,30.00,SSE,155,4.0,13.0,56,0.00,,,0.00,Wunderground v.1.15,2013-05-19 20:40:00,
2013-05-19 16:42:00,87.3,69.7,30.00,ESE,121,4.0,13.0,56,0.00,,,0.00,Wunderground v.1.15,2013-05-19 20:42:00,
2013-05-19 16:44:00,87.4,69.8,30.00,ESE,119,4.0,13.0,56,0.00,,,0.00,Wunderground v.1.15,2013-05-19 20:44:00,
2013-05-19 16:45:00,87.3,68.6,30.00,ENE,60,4.0,13.0,54,0.00,,,0.00,Wunderground v.1.15,2013-05-19 20:45:00,
2013-05-19 16:50:00,86.5,68.9,29.99,ENE,70,4.0,13.0,56,0.00,,,0.00,Wunderground v.1.15,2013-05-19 20:50:00,
2013-05-19 16:51:00,86.3,68.8,29.99,East,85,5.0,13.0,56,0.00,,,0.00,Wunderground v.1.15,2013-05-19 20:51:00,
2013-05-19 16:55:00,86.0,68.5,29.99,ESE,106,5.0,13.0,56,0.00,,,0.00,Wunderground v.1.15,2013-05-19 20:55:00,
2013-05-19 16:57:00,85.9,68.4,29.99,SE,129,5.0,13.0,56,0.00,,,0.00,Wunderground v.1.15,2013-05-19 20:57:00,
2013-05-19 16:58:00,85.7,68.2,29.99,SE,132,5.0,13.0,56,0.00,,,0.00,Wunderground v.1.15,2013-05-19 20:58:00,
2013-05-19 17:00:00,85.6,68.1,29.99,East,79,4.0,5.0,56,0.00,,,0.00,Wunderground v.1.15,2013-05-19 21:00:00,
2013-05-19 17:01:00,85.5,68.0,29.99,ENE,70,4.0,5.0,56,0.00,,,0.00,Wunderground v.1.15,2013-05-19 21:01:00,
2013-05-19 17:03:00,85.3,67.8,29.99,ENE,58,4.0,5.0,56,0.00,,,0.00,Wunderground v.1.15,2013-05-19 21:03:00,
2013-05-19 17:04:00,85.2,68.2,29.99,ESE,102,4.0,5.0,57,0.00,,,0.00,Wunderground v.1.15,2013-05-19 21:04:00,
2013-05-19 17:05:00,85.1,68.2,29.99,East,80,4.0,5.0,57,0.00,,,0.00,Wunderground v.1.15,2013-05-19 21:05:00,
2013-05-19 17:08:00,84.7,67.8,29.99,East,89,4.0,8.0,57,0.00,,,0.00,Wunderground v.1.15,2013-05-19 21:08:00,
2013-05-19 17:09:00,84.4,68.0,29.99,East,101,4.0,8.0,58,0.00,,,0.00,Wunderground v.1.15,2013-05-19 21:09:00,
2013-05-19 17:10:00,84.2,68.3,29.99,ESE,108,4.0,5.0,59,0.00,,,0.00,Wunderground v.1.15,2013-05-19 21:10:00,
2013-05-19 17:13:00,83.8,67.9,29.99,ENE,78,4.0,9.0,59,0.00,,,0.00,Wunderground v.1.15,2013-05-19 21:13:00,
2013-05-19 17:14:00,83.7,67.8,29.99,ENE,60,5.0,9.0,59,0.00,,,0.00,Wunderground v.1.15,2013-05-19 21:14:00,
2013-05-19 17:15:00,83.6,67.8,29.99,ENE,61,5.0,9.0,59,0.00,,,0.00,Wunderground v.1.15,2013-05-19 21:15:00,
2013-05-19 17:16:00,83.5,67.7,29.99,SE,138,5.0,9.0,59,0.00,,,0.00,Wunderground v.1.15,2013-05-19 21:16:00,
2013-05-19 17:19:00,83.0,68.2,29.99,ENE,74,5.0,9.0,61,0.00,,,0.00,Wunderground v.1.15,2013-05-19 21:19:00,
2013-05-19 17:20:00,83.0,68.2,29.99,NE,37,5.0,8.0,61,0.00,,,0.00,Wunderground v.1.15,2013-05-19 21:20:00,
2013-05-19 17:25:00,82.7,67.9,29.99,ESE,105,5.0,8.0,61,0.00,,,0.00,Wunderground v.1.15,2013-05-19 21:25:00,
2013-05-19 17:26:00,82.5,68.2,29.99,SE,126,5.0,8.0,62,0.00,,,0.00,Wunderground v.1.15,2013-05-19 21:26:00,
2013-05-19 17:27:00,82.5,68.2,29.99,NE,53,5.0,8.0,62,0.00,,,0.00,Wunderground v.1.15,2013-05-19 21:27:00,
2013-05-19 17:28:00,82.3,68.0,29.99,South,169,5.0,8.0,62,0.00,,,0.00,Wunderground v.1.15,2013-05-19 21:28:00,
2013-05-19 17:31:00,82.2,68.3,29.99,East,83,5.0,6.0,63,0.00,,,0.00,Wunderground v.1.15,2013-05-19 21:31:00,
2013-05-19 17:33:00,82.1,68.7,29.99,ESE,113,5.0,11.0,64,0.00,,,0.00,Wunderground v.1.15,2013-05-19 21:33:00,
2013-05-19 17:34:00,82.2,68.8,29.99,ENE,72,5.0,11.0,64,0.00,,,0.00,Wunderground v.1.15,2013-05-19 21:34:00,
2013-05-19 17:37:00,82.2,68.3,29.99,East,87,4.0,11.0,63,0.00,,,0.00,Wunderground v.1.15,2013-05-19 21:37:00,
2013-05-19 17:39:00,82.4,68.5,29.99,SE,124,4.0,11.0,63,0.00,,,0.00,Wunderground v.1.15,2013-05-19 21:39:00,
2013-05-19 17:40:00,82.5,68.2,29.99,East,92,4.0,11.0,62,0.00,,,0.00,Wunderground v.1.15,2013-05-19 21:40:00,
2013-05-19 17:42:00,82.4,68.1,29.99,ESE,118,4.0,11.0,62,0.00,,,0.00,Wunderground v.1.15,2013-05-19 21:42:00,
2013-05-19 17:44:00,82.3,68.4,29.99,ENE,67,4.0,11.0,63,0.00,,,0.00,Wunderground v.1.15,2013-05-19 21:44:00,
2013-05-19 17:45:00,82.3,68.4,29.99,ESE,120,4.0,11.0,63,0.00,,,0.00,Wunderground v.1.15,2013-05-19 21:45:00,
2013-05-19 17:47:00,82.2,68.3,29.99,SE,143,4.0,11.0,63,0.00,,,0.00,Wunderground v.1.15,2013-05-19 21:47:00,
2013-05-19 17:49:00,82.3,68.4,29.99,SE,126,4.0,11.0,63,0.00,,,0.00,Wunderground v.1.15,2013-05-19 21:49:00,
2013-05-19 17:52:00,82.4,68.5,29.99,East,87,4.0,11.0,63,0.00,,,0.00,Wunderground v.1.15,2013-05-19 21:52:00,
2013-05-19 17:53:00,82.4,68.5,29.99,ESE,108,4.0,11.0,63,0.00,,,0.00,Wunderground v.1.15,2013-05-19 21:53:00,
2013-05-19 17:56:00,82.6,69.2,29.98,ENE,57,4.0,11.0,64,0.00,,,0.00,Wunderground v.1.15,2013-05-19 21:56:00,
2013-05-19 17:58:00,82.6,68.7,29.98,SSE,168,4.0,11.0,63,0.00,,,0.00,Wunderground v.1.15,2013-05-19 21:58:00,
2013-05-19 18:00:00,82.7,68.4,29.99,East,86,4.0,10.0,62,0.00,,,0.00,Wunderground v.1.15,2013-05-19 22:00:00,
2013-05-19 18:01:00,82.7,68.4,29.99,ENE,66,4.0,10.0,62,0.00,,,0.00,Wunderground v.1.15,2013-05-19 22:01:00,
2013-05-19 18:02:00,82.6,67.8,29.99,ENE,75,4.0,10.0,61,0.00,,,0.00,Wunderground v.1.15,2013-05-19 22:02:00,
2013-05-19 18:03:00,82.5,68.2,29.99,ENE,71,5.0,10.0,62,0.00,,,0.00,Wunderground v.1.15,2013-05-19 22:03:00,
2013-05-19 18:06:00,82.1,67.8,29.99,ENE,70,5.0,10.0,62,0.00,,,0.00,Wunderground v.1.15,2013-05-19 22:06:00,
2013-05-19 18:08:00,82.1,67.8,29.99,ENE,64,5.0,10.0,62,0.00,,,0.00,Wunderground v.1.15,2013-05-19 22:08:00,
2013-05-19 18:09:00,82.0,67.2,29.99,ENE,72,5.0,10.0,61,0.00,,,0.00,Wunderground v.1.15,2013-05-19 22:09:00,
2013-05-19 18:10:00,82.0,67.7,29.99,ENE,66,5.0,5.0,62,0.00,,,0.00,Wunderground v.1.15,2013-05-19 22:10:00,
2013-05-19 18:13:00,82.1,68.3,29.99,ENE,60,5.0,8.0,63,0.00,,,0.00,Wunderground v.1.15,2013-05-19 22:13:00,
2013-05-19 18:16:00,82.0,68.6,29.99,East,88,5.0,8.0,64,0.00,,,0.00,Wunderground v.1.15,2013-05-19 22:16:00,
2013-05-19 18:17:00,81.9,68.1,29.99,ESE,114,5.0,8.0,63,0.00,,,0.00,Wunderground v.1.15,2013-05-19 22:17:00,
2013-05-19 18:19:00,81.8,68.0,29.98,ESE,120,5.0,8.0,63,0.00,,,0.00,Wunderground v.1.15,2013-05-19 22:19:00,
2013-05-19 18:20:00,81.7,67.9,29.99,ESE,110,5.0,5.0,63,0.00,,,0.00,Wunderground v.1.15,2013-05-19 22:20:00,
2013-05-19 18:22:00,81.7,67.4,29.99,ESE,108,5.0,7.0,62,0.00,,,0.00,Wunderground v.1.15,2013-05-19 22:22:00,
2013-05-19 18:25:00,81.5,68.1,29.99,East,91,5.0,7.0,64,0.00,,,0.00,Wunderground v.1.15,2013-05-19 22:25:00,
2013-05-19 18:28:00,81.3,67.0,29.99,NE,43,5.0,7.0,62,0.00,,,0.00,Wunderground v.1.15,2013-05-19 22:28:00,
2013-05-19 18:29:00,81.3,67.5,29.99,East,91,5.0,7.0,63,0.00,,,0.00,Wunderground v.1.15,2013-05-19 22:29:00,
2013-05-19 18:32:00,81.2,67.9,29.99,ENE,57,5.0,13.0,64,0.00,,,0.00,Wunderground v.1.15,2013-05-19 22:32:00,
2013-05-19 18:33:00,81.2,67.4,29.99,ESE,114,5.0,13.0,63,0.00,,,0.00,Wunderground v.1.15,2013-05-19 22:33:00,
2013-05-19 18:34:00,81.2,67.9,29.99,SE,127,5.0,13.0,64,0.00,,,0.00,Wunderground v.1.15,2013-05-19 22:34:00,
2013-05-19 18:35:00,81.2,67.9,29.99,ESE,105,5.0,13.0,64,0.00,,,0.00,Wunderground v.1.15,2013-05-19 22:35:00,
2013-05-19 18:36:00,81.2,67.9,29.99,ENE,59,4.0,13.0,64,0.00,,,0.00,Wunderground v.1.15,2013-05-19 22:36:00,
2013-05-19 18:41:00,81.0,65.8,29.99,ENE,76,4.0,13.0,60,0.00,,,0.00,Wunderground v.1.15,2013-05-19 22:41:00,
2013-05-19 18:42:00,81.0,66.3,29.99,ESE,105,4.0,13.0,61,0.00,,,0.00,Wunderground v.1.15,2013-05-19 22:42:00,
2013-05-19 18:44:00,80.9,66.7,29.99,NE,55,4.0,13.0,62,0.00,,,0.00,Wunderground v.1.15,2013-05-19 22:44:00,
2013-05-19 18:45:00,80.8,66.6,29.99,East,96,4.0,13.0,62,0.00,,,0.00,Wunderground v.1.15,2013-05-19 22:45:00,
2013-05-19 18:46:00,80.9,66.7,29.99,East,96,4.0,13.0,62,0.00,,,0.00,Wunderground v.1.15,2013-05-19 22:46:00,
2013-05-19 18:50:00,80.9,66.2,29.99,East,88,4.0,13.0,61,0.00,,,0.00,Wunderground v.1.15,2013-05-19 22:50:00,
2013-05-19 18:51:00,80.9,66.7,29.99,ENE,78,4.0,13.0,62,0.00,,,0.00,Wunderground v.1.15,2013-05-19 22:51:00,
2013-05-19 18:52:00,80.8,66.6,29.99,ESE,117,4.0,13.0,62,0.00,,,0.00,Wunderground v.1.15,2013-05-19 22:52:00,
2013-05-19 18:57:00,80.7,66.9,30.00,ESE,114,4.0,13.0,63,0.00,,,0.00,Wunderground v.1.15,2013-05-19 22:57:00,
2013-05-19 18:59:00,80.6,66.8,30.00,East,92,4.0,13.0,63,0.00,,,0.00,Wunderground v.1.15,2013-05-19 22:59:00,
2013-05-19 19:00:00,80.6,66.8,30.00,East,81,4.0,4.0,63,0.00,,,0.00,Wunderground v.1.15,2013-05-19 23:00:00,
2013-05-19 19:01:00,80.5,67.2,30.00,SE,131,4.0,4.0,64,0.00,,,0.00,Wunderground v.1.15,2013-05-19 23:01:00,
2013-05-19 19:03:00,80.5,67.2,30.01,SE,126,4.0,5.0,64,0.00,,,0.00,Wunderground v.1.15,2013-05-19 23:03:00,
2013-05-19 19:05:00,80.3,66.6,30.01,ESE,105,4.0,5.0,63,0.00,,,0.00,Wunderground v.1.15,2013-05-19 23:05:00,
2013-05-19 19:06:00,80.3,66.6,30.01,ENE,58,4.0,5.0,63,0.00,,,0.00,Wunderground v.1.15,2013-05-19 23:06:00,
2013-05-19 19:09:00,80.3,66.1,30.01,ENE,67,4.0,5.0,62,0.00,,,0.00,Wunderground v.1.15,2013-05-19 23:09:00,
2013-05-19 19:12:00,80.3,67.0,30.01,ENE,57,3.0,5.0,64,0.00,,,0.00,Wunderground v.1.15,2013-05-19 23:12:00,
2013-05-19 19:14:00,80.2,66.9,30.01,SE,134,4.0,5.0,64,0.00,,,0.00,Wunderground v.1.15,2013-05-19 23:14:00,
2013-05-19 19:15:00,80.2,66.9,30.01,East,82,3.0,5.0,64,0.00,,,0.00,Wunderground v.1.15,2013-05-19 23:15:00,
2013-05-19 19:17:00,80.2,66.9,30.01,ESE,117,4.0,5.0,64,0.00,,,0.00,Wunderground v.1.15,2013-05-19 23:17:00,
2013-05-19 19:18:00,80.1,66.8,30.01,ESE,112,4.0,7.0,64,0.00,,,0.00,Wunderground v.1.15,2013-05-19 23:18:00,
2013-05-19 19:20:00,80.1,66.4,30.01,NE,56,4.0,6.0,63,0.00,,,0.00,Wunderground v.1.15,2013-05-19 23:20:00,
2013-05-19 19:22:00,80.1,66.4,30.01,SE,133,4.0,6.0,63,0.00,,,0.00,Wunderground v.1.15,2013-05-19 23:22:00,
2013-05-19 19:25:00,80.1,66.4,30.01,East,98,3.0,6.0,63,0.00,,,0.00,Wunderground v.1.15,2013-05-19 23:25:00,
2013-05-19 19:27:00,80.0,66.3,30.01,SE,129,3.0,6.0,63,0.00,,,0.00,Wunderground v.1.15,2013-05-19 23:27:00,
2013-05-19 19:29:00,80.0,66.3,30.01,ENE,73,3.0,6.0,63,0.00,,,0.00,Wunderground v.1.15,2013-05-19 23:29:00,
2013-05-19 19:31:00,80.0,66.7,30.01,ENE,63,2.0,12.0,64,0.00,,,0.00,Wunderground v.1.15,2013-05-19 23:31:00,
2013-05-19 19:35:00,79.9,67.1,30.01,ENE,62,2.0,12.0,65,0.00,,,0.00,Wunderground v.1.15,2013-05-19 23:35:00,
2013-05-19 19:36:00,79.9,67.1,30.01,ENE,63,2.0,12.0,65,0.00,,,0.00,Wunderground v.1.15,2013-05-19 23:36:00,
2013-05-19 19:37:00,79.9,67.1,30.01,SE,141,2.0,12.0,65,0.00,,,0.00,Wunderground v.1.15,2013-05-19 23:37:00,
2013-05-19 19:38:00,79.8,67.4,30.01,East,84,2.0,12.0,66,0.00,,,0.00,Wunderground v.1.15,2013-05-19 23:38:00,
2013-05-19 19:43:00,79.8,67.4,30.02,ENE,61,2.0,12.0,66,0.00,,,0.00,Wunderground v.1.15,2013-05-19 23:43:00,
2013-05-19 19:44:00,79.8,67.4,30.02,NE,47,2.0,12.0,66,0.00,,,0.00,Wunderground v.1.15,2013-05-19 23:44:00,
2013-05-19 19:45:00,79.8,67.4,30.02,ESE,111,2.0,12.0,66,0.00,,,0.00,Wunderground v.1.15,2013-05-19 23:45:00,
2013-05-19 19:50:00,79.7,67.8,30.01,East,81,2.0,12.0,67,0.00,,,0.00,Wunderground v.1.15,2013-05-19 23:50:00,
2013-05-19 19:51:00,79.7,67.8,30.01,East,98,2.0,12.0,67,0.00,,,0.00,Wunderground v.1.15,2013-05-19 23:51:00,
2013-05-19 19:52:00,79.6,67.7,30.01,ESE,103,2.0,12.0,67,0.00,,,0.00,Wunderground v.1.15,2013-05-19 23:52:00,
2013-05-19 19:56:00,79.5,68.0,30.01,ESE,105,3.0,12.0,68,0.00,,,0.00,Wunderground v.1.15,2013-05-19 23:56:00,
2013-05-19 19:58:00,79.4,67.9,30.01,East,94,3.0,12.0,68,0.00,,,0.00,Wunderground v.1.15,2013-05-19 23:58:00,
2013-05-19 19:59:00,79.4,67.9,30.01,ENE,75,3.0,12.0,68,0.00,,,0.00,Wunderground v.1.15,2013-05-19 23:59:00,
2013-05-19 20:02:00,79.3,68.2,30.01,East,80,3.0,4.0,69,0.00,,,0.00,Wunderground v.1.15,2013-05-20 00:02:00,
2013-05-19 20:04:00,79.2,68.6,30.01,ESE,117,3.0,6.0,70,0.00,,,0.00,Wunderground v.1.15,2013-05-20 00:04:00,
2013-05-19 20:05:00,79.2,68.6,30.01,East,80,3.0,6.0,70,0.00,,,0.00,Wunderground v.1.15,2013-05-20 00:05:00,
2013-05-19 20:06:00,79.2,68.6,30.01,ENE,66,3.0,6.0,70,0.00,,,0.00,Wunderground v.1.15,2013-05-20 00:06:00,
2013-05-19 20:08:00,79.1,68.5,30.01,East,89,3.0,6.0,70,0.00,,,0.00,Wunderground v.1.15,2013-05-20 00:08:00,
2013-05-19 20:10:00,79.1,68.5,30.01,East,94,3.0,3.0,70,0.00,,,0.00,Wunderground v.1.15,2013-05-20 00:10:00,
2013-05-19 20:11:00,79.1,68.5,30.01,ESE,112,3.0,3.0,70,0.00,,,0.00,Wunderground v.1.15,2013-05-20 00:11:00,
2013-05-19 20:13:00,79.0,68.4,30.01,ENE,58,3.0,3.0,70,0.00,,,0.00,Wunderground v.1.15,2013-05-20 00:13:00,
2013-05-19 20:14:00,79.0,68.4,30.01,East,79,3.0,4.0,70,0.00,,,0.00,Wunderground v.1.15,2013-05-20 00:14:00,
2013-05-19 20:15:00,79.0,68.4,30.01,SSE,158,3.0,4.0,70,0.00,,,0.00,Wunderground v.1.15,2013-05-20 00:15:00,
2013-05-19 20:17:00,79.0,68.8,30.01,ESE,114,3.0,5.0,71,0.00,,,0.00,Wunderground v.1.15,2013-05-20 00:17:00,
2013-05-19 20:18:00,78.9,68.7,30.01,ENE,73,3.0,7.0,71,0.00,,,0.00,Wunderground v.1.15,2013-05-20 00:18:00,
2013-05-19 20:19:00,78.9,68.7,30.01,ENE,73,3.0,7.0,71,0.00,,,0.00,Wunderground v.1.15,2013-05-20 00:19:00,
2013-05-19 20:20:00,78.9,68.7,30.01,ENE,75,3.0,5.0,71,0.00,,,0.00,Wunderground v.1.15,2013-05-20 00:20:00,
2013-05-19 20:21:00,78.9,68.7,30.01,East,84,3.0,5.0,71,0.00,,,0.00,Wunderground v.1.15,2013-05-20 00:21:00,
2013-05-19 20:24:00,78.8,68.6,30.01,SSE,151,3.0,5.0,71,0.00,,,0.00,Wunderground v.1.15,2013-05-20 00:24:00,
2013-05-19 20:25:00,78.8,68.6,30.01,East,90,3.0,5.0,71,0.00,,,0.00,Wunderground v.1.15,2013-05-20 00:25:00,
2013-05-19 20:26:00,78.8,69.0,30.01,SE,128,3.0,5.0,72,0.00,,,0.00,Wunderground v.1.15,2013-05-20 00:26:00,
2013-05-19 20:27:00,78.8,69.0,30.02,East,79,3.0,5.0,72,0.00,,,0.00,Wunderground v.1.15,2013-05-20 00:27:00,
2013-05-19 20:32:00,78.8,69.0,30.02,ENE,70,3.0,8.0,72,0.00,,,0.00,Wunderground v.1.15,2013-05-20 00:32:00,
2013-05-19 20:33:00,78.8,69.0,30.02,ESE,107,3.0,8.0,72,0.00,,,0.00,Wunderground v.1.15,2013-05-20 00:33:00,
2013-05-19 20:34:00,78.8,69.0,30.02,SE,126,3.0,8.0,72,0.00,,,0.00,Wunderground v.1.15,2013-05-20 00:34:00,
2013-05-19 20:38:00,78.8,69.0,30.02,East,80,4.0,8.0,72,0.00,,,0.00,Wunderground v.1.15,2013-05-20 00:38:00,
2013-05-19 20:40:00,78.8,69.0,30.02,East,89,4.0,9.0,72,0.00,,,0.00,Wunderground v.1.15,2013-05-20 00:40:00,
2013-05-19 20:41:00,78.8,69.0,30.02,ESE,111,4.0,9.0,72,0.00,,,0.00,Wunderground v.1.15,2013-05-20 00:41:00,
2013-05-19 20:43:00,78.7,68.9,30.02,East,98,4.0,9.0,72,0.00,,,0.00,Wunderground v.1.15,2013-05-20 00:43:00,
2013-05-19 20:46:00,78.7,68.9,30.02,East,80,4.0,9.0,72,0.00,,,0.00,Wunderground v.1.15,2013-05-20 00:46:00,
2013-05-19 20:48:00,78.7,68.9,30.02,East,96,4.0,9.0,72,0.00,,,0.00,Wunderground v.1.15,2013-05-20 00:48:00,
2013-05-19 20:49:00,78.7,68.9,30.02,East,94,4.0,9.0,72,0.00,,,0.00,Wunderground v.1.15,2013-05-20 00:49:00,
2013-05-19 20:52:00,78.7,68.9,30.03,East,82,3.0,8.0,72,0.00,,,0.00,Wunderground v.1.15,2013-05-20 00:52:00,
2013-05-19 20:53:00,78.7,68.9,30.03,ENE,63,3.0,8.0,72,0.00,,,0.00,Wunderground v.1.15,2013-05-20 00:53:00,
2013-05-19 20:58:00,78.7,69.3,30.03,ESE,108,2.0,8.0,73,0.00,,,0.00,Wunderground v.1.15,2013-05-20 00:58:00,
2013-05-19 20:59:00,78.7,69.3,30.04,ESE,123,2.0,8.0,73,0.00,,,0.00,Wunderground v.1.15,2013-05-20 00:59:00,
2013-05-19 21:00:00,78.7,68.9,30.04,SE,136,1.0,3.0,72,0.00,,,0.00,Wunderground v.1.15,2013-05-20 01:00:00,
2013-05-19 21:03:00,78.6,69.2,30.04,ESE,109,2.0,5.0,73,0.00,,,0.00,Wunderground v.1.15,2013-05-20 01:03:00,
2013-05-19 21:04:00,78.7,69.3,30.04,SE,135,2.0,5.0,73,0.00,,,0.00,Wunderground v.1.15,2013-05-20 01:04:00,
2013-05-19 21:05:00,78.7,69.3,30.04,ESE,110,2.0,5.0,73,0.00,,,0.00,Wunderground v.1.15,2013-05-20 01:05:00,
2013-05-19 21:08:00,78.6,69.2,30.04,SE,127,2.0,5.0,73,0.00,,,0.00,Wunderground v.1.15,2013-05-20 01:08:00,
2013-05-19 21:09:00,78.6,69.2,30.04,East,101,2.0,5.0,73,0.00,,,0.00,Wunderground v.1.15,2013-05-20 01:09:00,
2013-05-19 21:10:00,78.6,69.2,30.04,SSE,151,2.0,2.0,73,0.00,,,0.00,Wunderground v.1.15,2013-05-20 01:10:00,
2013-05-19 21:14:00,78.6,69.2,30.04,East,87,2.0,3.0,73,0.00,,,0.00,Wunderground v.1.15,2013-05-20 01:14:00,
2013-05-19 21:16:00,78.5,69.1,30.04,SE,133,2.0,3.0,73,0.00,,,0.00,Wunderground v.1.15,2013-05-20 01:16:00,
2013-05-19 21:18:00,78.5,69.1,30.04,ESE,122,1.0,3.0,73,0.00,,,0.00,Wunderground v.1.15,2013-05-20 01:18:00,
2013-05-19 21:19:00,78.5,69.1,30.04,SE,126,1.0,3.0,73,0.00,,,0.00,Wunderground v.1.15,2013-05-20 01:19:00,
2013-05-19 21:20:00,78.5,69.1,30.04,ENE,77,1.0,2.0,73,0.00,,,0.00,Wunderground v.1.15,2013-05-20 01:20:00,
2013-05-19 21:21:00,78.5,69.1,30.05,East,84,1.0,2.0,73,0.00,,,0.00,Wunderground v.1.15,2013-05-20 01:21:00,
2013-05-19 21:24:00,78.5,69.1,30.04,SE,124,2.0,2.0,73,0.00,,,0.00,Wunderground v.1.15,2013-05-20 01:24:00,
2013-05-19 21:25:00,78.5,69.1,30.04,SE,127,2.0,2.0,73,0.00,,,0.00,Wunderground v.1.15,2013-05-20 01:25:00,
2013-05-19 21:27:00,78.5,69.1,30.04,East,97,2.0,2.0,73,0.00,,,0.00,Wunderground v.1.15,2013-05-20 01:27:00,
2013-05-19 21:30:00,78.5,69.5,30.04,East,86,2.0,4.0,74,0.00,,,0.00,Wunderground v.1.15,2013-05-20 01:30:00,
2013-05-19 21:31:00,78.5,69.1,30.04,East,95,2.0,11.0,73,0.00,,,0.00,Wunderground v.1.15,2013-05-20 01:31:00,
2013-05-19 21:32:00,78.5,69.1,30.04,SE,139,2.0,11.0,73,0.00,,,0.00,Wunderground v.1.15,2013-05-20 01:32:00,
2013-05-19 21:36:00,78.5,69.5,30.04,East,85,3.0,11.0,74,0.00,,,0.00,Wunderground v.1.15,2013-05-20 01:36:00,
2013-05-19 21:38:00,78.5,69.5,30.04,East,86,3.0,11.0,74,0.00,,,0.00,Wunderground v.1.15,2013-05-20 01:38:00,
2013-05-19 21:39:00,78.5,69.5,30.04,South,174,3.0,11.0,74,0.00,,,0.00,Wunderground v.1.15,2013-05-20 01:39:00,
2013-05-19 21:40:00,78.5,69.5,30.04,SE,139,3.0,11.0,74,0.00,,,0.00,Wunderground v.1.15,2013-05-20 01:40:00,
2013-05-19 21:41:00,78.5,69.5,30.04,East,91,3.0,11.0,74,0.00,,,0.00,Wunderground v.1.15,2013-05-20 01:41:00,
2013-05-19 21:44:00,78.5,69.5,30.05,ESE,118,2.0,11.0,74,0.00,,,0.00,Wunderground v.1.15,2013-05-20 01:44:00,
2013-05-19 21:45:00,78.5,69.5,30.05,ESE,110,2.0,11.0,74,0.00,,,0.00,Wunderground v.1.15,2013-05-20 01:45:00,
2013-05-19 21:50:00,78.5,69.9,30.05,ESE,109,2.0,2.0,75,0.00,,,0.00,Wunderground v.1.15,2013-05-20 01:50:00,
2013-05-19 21:51:00,78.5,69.9,30.05,East,96,1.0,11.0,75,0.00,,,0.00,Wunderground v.1.15,2013-05-20 01:51:00,
2013-05-19 21:54:00,78.5,70.3,30.05,ENE,58,1.0,11.0,76,0.00,,,0.00,Wunderground v.1.15,2013-05-20 01:54:00,
2013-05-19 21:57:00,78.5,70.3,30.05,SE,136,2.0,11.0,76,0.00,,,0.00,Wunderground v.1.15,2013-05-20 01:57:00,
2013-05-19 21:58:00,78.4,70.2,30.05,SE,146,2.0,11.0,76,0.00,,,0.00,Wunderground v.1.15,2013-05-20 01:58:00,
2013-05-19 22:00:00,78.4,70.2,30.05,ENE,78,2.0,2.0,76,0.00,,,0.00,Wunderground v.1.15,2013-05-20 02:00:00,
2013-05-19 22:01:00,78.4,70.2,30.05,NE,55,2.0,2.0,76,0.00,,,0.00,Wunderground v.1.15,2013-05-20 02:01:00,
2013-05-19 22:04:00,78.4,70.2,30.05,East,86,2.0,3.0,76,0.00,,,0.00,Wunderground v.1.15,2013-05-20 02:04:00,
2013-05-19 22:05:00,78.4,70.2,30.05,SE,127,2.0,3.0,76,0.00,,,0.00,Wunderground v.1.15,2013-05-20 02:05:00,
2013-05-19 22:06:00,78.4,70.2,30.05,ESE,118,2.0,3.0,76,0.00,,,0.00,Wunderground v.1.15,2013-05-20 02:06:00,
2013-05-19 22:10:00,78.4,70.6,30.06,SSE,151,2.0,2.0,77,0.00,,,0.00,Wunderground v.1.15,2013-05-20 02:10:00,
2013-05-19 22:12:00,78.4,70.6,30.06,ESE,117,2.0,2.0,77,0.00,,,0.00,Wunderground v.1.15,2013-05-20 02:12:00,
2013-05-19 22:14:00,78.4,70.6,30.06,SE,131,2.0,2.0,77,0.00,,,0.00,Wunderground v.1.15,2013-05-20 02:14:00,
2013-05-19 22:16:00,78.4,70.2,30.05,SE,128,2.0,2.0,76,0.00,,,0.00,Wunderground v.1.15,2013-05-20 02:16:00,
2013-05-19 22:17:00,78.3,70.1,30.05,SE,144,2.0,3.0,76,0.00,,,0.00,Wunderground v.1.15,2013-05-20 02:17:00,
2013-05-19 22:21:00,78.3,70.1,30.05,ENE,70,2.0,5.0,76,0.00,,,0.00,Wunderground v.1.15,2013-05-20 02:21:00,
2013-05-19 22:23:00,78.3,70.5,30.05,SE,124,2.0,5.0,77,0.00,,,0.00,Wunderground v.1.15,2013-05-20 02:23:00,
2013-05-19 22:24:00,78.4,70.6,30.05,SE,126,2.0,6.0,77,0.00,,,0.00,Wunderground v.1.15,2013-05-20 02:24:00,
2013-05-19 22:27:00,78.4,70.6,30.05,SE,131,3.0,6.0,77,0.00,,,0.00,Wunderground v.1.15,2013-05-20 02:27:00,
2013-05-19 22:28:00,78.4,70.6,30.05,SSE,150,3.0,6.0,77,0.00,,,0.00,Wunderground v.1.15,2013-05-20 02:28:00,
2013-05-19 22:31:00,78.4,70.6,30.05,East,98,2.0,8.0,77,0.00,,,0.00,Wunderground v.1.15,2013-05-20 02:31:00,
2013-05-19 22:32:00,78.4,70.6,30.05,ENE,66,2.0,8.0,77,0.00,,,0.00,Wunderground v.1.15,2013-05-20 02:32:00,
2013-05-19 22:35:00,78.3,70.5,30.06,East,83,2.0,8.0,77,0.00,,,0.00,Wunderground v.1.15,2013-05-20 02:35:00,
2013-05-19 22:37:00,78.3,70.5,30.06,East,96,2.0,8.0,77,0.00,,,0.00,Wunderground v.1.15,2013-05-20 02:37:00,
2013-05-19 22:38:00,78.3,70.5,30.06,East,100,2.0,8.0,77,0.00,,,0.00,Wunderground v.1.15,2013-05-20 02:38:00,
2013-05-19 22:40:00,78.3,70.5,30.06,SE,125,2.0,8.0,77,0.00,,,0.00,Wunderground v.1.15,2013-05-20 02:40:00,
2013-05-19 22:42:00,78.3,70.5,30.06,ESE,109,2.0,8.0,77,0.00,,,0.00,Wunderground v.1.15,2013-05-20 02:42:00,
2013-05-19 22:43:00,78.3,70.5,30.06,East,91,2.0,8.0,77,0.00,,,0.00,Wunderground v.1.15,2013-05-20 02:43:00,
2013-05-19 22:46:00,78.3,70.5,30.06,SE,134,1.0,8.0,77,0.00,,,0.00,Wunderground v.1.15,2013-05-20 02:46:00,
2013-05-19 22:48:00,78.3,70.5,30.06,ESE,112,1.0,8.0,77,0.00,,,0.00,Wunderground v.1.15,2013-05-20 02:48:00,
2013-05-19 22:52:00,78.3,70.5,30.06,East,79,2.0,8.0,77,0.00,,,0.00,Wunderground v.1.15,2013-05-20 02:52:00,
2013-05-19 22:53:00,78.3,70.5,30.06,ESE,120,2.0,8.0,77,0.00,,,0.00,Wunderground v.1.15,2013-05-20 02:53:00,
2013-05-19 22:54:00,78.3,70.5,30.06,ESE,105,2.0,8.0,77,0.00,,,0.00,Wunderground v.1.15,2013-05-20 02:54:00,
2013-05-19 22:55:00,78.3,70.5,30.06,East,91,2.0,8.0,77,0.00,,,0.00,Wunderground v.1.15,2013-05-20 02:55:00,
2013-05-19 23:00:00,78.2,70.8,30.06,East,89,2.0,2.0,78,0.00,,,0.00,Wunderground v.1.15,2013-05-20 03:00:00,
2013-05-19 23:01:00,78.2,70.8,30.06,East,91,1.0,2.0,78,0.00,,,0.00,Wunderground v.1.15,2013-05-20 03:01:00,
2013-05-19 23:03:00,78.1,70.7,30.06,ESE,119,1.0,2.0,78,0.00,,,0.00,Wunderground v.1.15,2013-05-20 03:03:00,
2013-05-19 23:04:00,78.1,70.7,30.06,ESE,111,2.0,3.0,78,0.00,,,0.00,Wunderground v.1.15,2013-05-20 03:04:00,
2013-05-19 23:09:00,78.1,70.7,30.06,East,82,2.0,3.0,78,0.00,,,0.00,Wunderground v.1.15,2013-05-20 03:09:00,
2013-05-19 23:10:00,78.2,70.8,30.06,ESE,110,2.0,2.0,78,0.00,,,0.00,Wunderground v.1.15,2013-05-20 03:10:00,
2013-05-19 23:13:00,78.1,70.7,30.06,SE,129,2.0,5.0,78,0.00,,,0.00,Wunderground v.1.15,2013-05-20 03:13:00,
2013-05-19 23:15:00,78.1,70.7,30.06,ESE,122,1.0,5.0,78,0.00,,,0.00,Wunderground v.1.15,2013-05-20 03:15:00,
2013-05-19 23:17:00,78.1,70.7,30.06,ESE,107,1.0,5.0,78,0.00,,,0.00,Wunderground v.1.15,2013-05-20 03:17:00,
2013-05-19 23:18:00,78.1,70.7,30.06,SE,131,1.0,5.0,78,0.00,,,0.00,Wunderground v.1.15,2013-05-20 03:18:00,
2013-05-19 23:20:00,78.1,71.1,30.06,ESE,104,1.0,2.0,79,0.00,,,0.00,Wunderground v.1.15,2013-05-20 03:20:00,
2013-05-19 23:22:00,78.1,71.1,30.06,SE,129,2.0,3.0,79,0.00,,,0.00,Wunderground v.1.15,2013-05-20 03:22:00,
2013-05-19 23:24:00,78.1,71.1,30.06,SE,145,2.0,3.0,79,0.00,,,0.00,Wunderground v.1.15,2013-05-20 03:24:00,
2013-05-19 23:25:00,78.1,71.1,30.06,East,91,2.0,3.0,79,0.00,,,0.00,Wunderground v.1.15,2013-05-20 03:25:00,
2013-05-19 23:26:00,78.2,71.2,30.06,East,84,2.0,3.0,79,0.00,,,0.00,Wunderground v.1.15,2013-05-20 03:26:00,
2013-05-19 23:29:00,78.2,71.2,30.06,East,89,2.0,3.0,79,0.00,,,0.00,Wunderground v.1.15,2013-05-20 03:29:00,
2013-05-19 23:30:00,78.2,71.2,30.06,ENE,75,2.0,2.0,79,0.00,,,0.00,Wunderground v.1.15,2013-05-20 03:30:00,
2013-05-19 23:32:00,78.2,71.2,30.06,ENE,71,2.0,7.0,79,0.00,,,0.00,Wunderground v.1.15,2013-05-20 03:32:00,
2013-05-19 23:33:00,78.2,71.2,30.06,East,80,2.0,7.0,79,0.00,,,0.00,Wunderground v.1.15,2013-05-20 03:33:00,
2013-05-19 23:35:00,78.2,71.2,30.06,East,81,2.0,7.0,79,0.00,,,0.00,Wunderground v.1.15,2013-05-20 03:35:00,
2013-05-19 23:37:00,78.2,71.2,30.06,East,80,2.0,7.0,79,0.00,,,0.00,Wunderground v.1.15,2013-05-20 03:37:00,
2013-05-19 23:38:00,78.2,71.2,30.06,SE,142,2.0,7.0,79,0.00,,,0.00,Wunderground v.1.15,2013-05-20 03:38:00,
2013-05-19 23:42:00,78.2,71.2,30.05,ESE,112,2.0,7.0,79,0.00,,,0.00,Wunderground v.1.15,2013-05-20 03:42:00,
2013-05-19 23:44:00,78.2,71.2,30.05,ESE,121,2.0,7.0,79,0.00,,,0.00,Wunderground v.1.15,2013-05-20 03:44:00,
2013-05-19 23:46:00,78.2,71.2,30.05,East,91,2.0,7.0,79,0.00,,,0.00,Wunderground v.1.15,2013-05-20 03:46:00,
2013-05-19 23:47:00,78.2,71.2,30.05,East,80,2.0,7.0,79,0.00,,,0.00,Wunderground v.1.15,2013-05-20 03:47:00,
2013-05-19 23:51:00,78.2,71.2,30.05,NE,56,3.0,7.0,79,0.00,,,0.00,Wunderground v.1.15,2013-05-20 03:51:00,
2013-05-19 23:53:00,78.2,71.2,30.05,East,96,3.0,7.0,79,0.00,,,0.00,Wunderground v.1.15,2013-05-20 03:53:00,
2013-05-19 23:54:00,78.2,71.2,30.05,ENE,67,3.0,7.0,79,0.00,,,0.00,Wunderground v.1.15,2013-05-20 03:54:00,
2013-05-19 23:55:00,78.2,71.2,30.05,ENE,73,3.0,7.0,79,0.00,,,0.00,Wunderground v.1.15,2013-05-20 03:55:00,
2013-05-19 23:57:00,78.2,71.2,30.05,East,85,3.0,7.0,79,0.00,,,0.00,Wunderground v.1.15,2013-05-20 03:57:00,
2013-05-19 23:59:00,78.2,71.2,30.04,ESE,117,3.0,7.0,79,0.00,,,0.00,Wunderground v.1.15,2013-05-20 03:59:00,